Wetterdaten: Mittwoch, 27.04.2016
Datum Zeit Temp. Aussen Temp. o. S. +5cm Feuchte Auss BlattFeu 1 Luftdruck Regen Sonnenschein Regendauer Solar Windben Empfang
27.04.2016 00:00 3,1 C 3,3 C 2,2 C 93 % 0 lf 1001,2 hPa 0,0 l/m 0 min 0 min 0 W/m 43,9 km/h (6 Bft) 98,00 %
27.04.2016 00:02 3,1 C 3,3 C 2,2 C 93 % 0 lf 1001,3 hPa 0,0 l/m 0 min 0 min 0 W/m 31,4 km/h (5 Bft) 97,14 %
27.04.2016 00:06 3,1 C 3,3 C 2,2 C 93 % 0 lf 1001,3 hPa 0,0 l/m 0 min 0 min 0 W/m 29,3 km/h (5 Bft) 97,85 %
27.04.2016 00:08 3,1 C 3,3 C 2,2 C 93 % 0 lf 1001,3 hPa 0,0 l/m 0 min 0 min 0 W/m 35,6 km/h (5 Bft) 96,36 %
27.04.2016 00:10 3,1 C 3,3 C 2,2 C 93 % 0 lf 1001,3 hPa 0,0 l/m 0 min 0 min 0 W/m 35,6 km/h (5 Bft) 95,74 %
27.04.2016 00:12 3,1 C 3,3 C 2,2 C 93 % 0 lf 1001,3 hPa 0,0 l/m 0 min 0 min 0 W/m 43,9 km/h (6 Bft) 97,87 %
27.04.2016 00:14 3,1 C 3,3 C 2,2 C 93 % 0 lf 1001,3 hPa 0,0 l/m 0 min 0 min 0 W/m 48,1 km/h (6 Bft) 95,74 %
27.04.2016 00:16 3,2 C 3,3 C 2,2 C 93 % 0 lf 1001,3 hPa 0,0 l/m 0 min 0 min 0 W/m 43,9 km/h (6 Bft) 95,74 %
27.04.2016 00:18 3,2 C 3,3 C 2,2 C 93 % 0 lf 1001,3 hPa 0,0 l/m 0 min 0 min 0 W/m 33,5 km/h (5 Bft) 97,87 %
27.04.2016 00:20 3,2 C 3,3 C 2,2 C 93 % 0 lf 1001,3 hPa 0,0 l/m 0 min 0 min 0 W/m 23,0 km/h (4 Bft) 97,96 %
27.04.2016 00:22 3,2 C 3,3 C 2,2 C 93 % 8 lf 1001,4 hPa 0,0 l/m 0 min 2 min 0 W/m 35,6 km/h (5 Bft) 97,87 %
27.04.2016 00:24 3,2 C 3,3 C 2,2 C 93 % 12 lf 1001,3 hPa 0,0 l/m 0 min 2 min 0 W/m 27,2 km/h (4 Bft) 97,22 %
27.04.2016 00:26 3,2 C 3,3 C 2,2 C 93 % 12 lf 1001,3 hPa 0,0 l/m 0 min 2 min 0 W/m 27,2 km/h (4 Bft) 100,00 %
27.04.2016 00:28 3,2 C 3,3 C 2,2 C 93 % 11 lf 1001,2 hPa 0,0 l/m 0 min 0 min 0 W/m 39,7 km/h (6 Bft) 98,18 %
27.04.2016 00:30 3,2 C 3,3 C 2,2 C 93 % 10 lf 1001,4 hPa 0,0 l/m 0 min 0 min 0 W/m 33,5 km/h (5 Bft) 97,87 %
27.04.2016 00:32 3,2 C 3,3 C 2,2 C 93 % 9 lf 1001,3 hPa 0,0 l/m 0 min 0 min 0 W/m 33,5 km/h (5 Bft) 97,96 %
27.04.2016 00:34 3,2 C 3,3 C 2,2 C 92 % 7 lf 1001,3 hPa 0,0 l/m 0 min 0 min 0 W/m 31,4 km/h (5 Bft) 100,00 %
27.04.2016 00:36 3,2 C 3,3 C 2,2 C 92 % 7 lf 1001,3 hPa 0,0 l/m 0 min 0 min 0 W/m 33,5 km/h (5 Bft) 94,44 %
27.04.2016 00:38 3,2 C 3,3 C 2,2 C 92 % 7 lf 1001,3 hPa 0,0 l/m 0 min 0 min 0 W/m 29,3 km/h (5 Bft) 97,87 %
27.04.2016 00:40 3,2 C 3,3 C 2,2 C 92 % 5 lf 1001,3 hPa 0,0 l/m 0 min 0 min 0 W/m 35,6 km/h (5 Bft) 95,74 %
27.04.2016 00:42 3,2 C 3,3 C 2,2 C 92 % 4 lf 1001,3 hPa 0,0 l/m 0 min 0 min 0 W/m 29,3 km/h (5 Bft) 95,65 %
27.04.2016 00:44 3,2 C 3,3 C 2,2 C 92 % 4 lf 1001,4 hPa 0,0 l/m 0 min 0 min 0 W/m 29,3 km/h (5 Bft) 92,73 %
27.04.2016 00:46 3,2 C 3,3 C 2,2 C 92 % 3 lf 1001,3 hPa 0,0 l/m 0 min 0 min 0 W/m 33,5 km/h (5 Bft) 97,87 %
27.04.2016 00:48 3,2 C 3,3 C 2,2 C 92 % 3 lf 1001,3 hPa 0,0 l/m 0 min 0 min 0 W/m 33,5 km/h (5 Bft) 97,87 %
27.04.2016 00:50 3,2 C 3,3 C 2,2 C 92 % 2 lf 1001,4 hPa 0,0 l/m 0 min 0 min 0 W/m 35,6 km/h (5 Bft) 93,62 %
27.04.2016 00:52 3,2 C 3,3 C 2,2 C 92 % 1 lf 1001,4 hPa 0,0 l/m 0 min 0 min 0 W/m 35,6 km/h (5 Bft) 93,62 %
27.04.2016 00:54 3,2 C 3,3 C 2,2 C 92 % 1 lf 1001,4 hPa 0,0 l/m 0 min 0 min 0 W/m 25,1 km/h (4 Bft) 93,48 %
27.04.2016 00:56 3,2 C 3,3 C 2,2 C 92 % 0 lf 1001,4 hPa 0,0 l/m 0 min 0 min 0 W/m 27,2 km/h (4 Bft) 93,62 %
27.04.2016 00:58 3,2 C 3,3 C 2,2 C 92 % 0 lf 1001,4 hPa 0,0 l/m 0 min 0 min 0 W/m 37,7 km/h (5 Bft) 91,49 %
27.04.2016 01:00 3,2 C 3,3 C 2,2 C 92 % 0 lf 1001,3 hPa 0,0 l/m 0 min 0 min 0 W/m 33,5 km/h (5 Bft) 95,74 %
27.04.2016 01:02 3,2 C 3,3 C 2,2 C 92 % 0 lf 1001,3 hPa 0,0 l/m 0 min 0 min 0 W/m 33,5 km/h (5 Bft) 95,74 %
27.04.2016 01:04 3,2 C 3,3 C 1,7 C 92 % 0 lf 1001,3 hPa 0,0 l/m 0 min 0 min 0 W/m 35,6 km/h (5 Bft) 96,00 %
27.04.2016 01:06 3,1 C 3,3 C 1,7 C 92 % 0 lf 1001,2 hPa 0,0 l/m 0 min 0 min 0 W/m 31,4 km/h (5 Bft) 94,29 %
27.04.2016 01:08 3,1 C 3,3 C 1,7 C 92 % 0 lf 1001,2 hPa 0,0 l/m 0 min 0 min 0 W/m 29,3 km/h (5 Bft) 93,62 %
27.04.2016 01:10 3,1 C 3,3 C 1,7 C 92 % 0 lf 1001,2 hPa 0,0 l/m 0 min 0 min 0 W/m 23,0 km/h (4 Bft) 96,36 %
27.04.2016 01:12 3,1 C 3,3 C 1,7 C 92 % 0 lf 1001,3 hPa 0,0 l/m 0 min 0 min 0 W/m 25,1 km/h (4 Bft) 96,00 %
27.04.2016 01:14 3,1 C 3,3 C 1,7 C 92 % 0 lf 1001,2 hPa 0,0 l/m 0 min 0 min 0 W/m 20,9 km/h (4 Bft) 93,62 %
27.04.2016 01:16 3,1 C 3,3 C 1,7 C 92 % 0 lf 1001,2 hPa 0,0 l/m 0 min 0 min 0 W/m 31,4 km/h (5 Bft) 94,29 %
27.04.2016 01:18 3,1 C 3,3 C 1,7 C 92 % 0 lf 1001,2 hPa 0,0 l/m 0 min 0 min 0 W/m 29,3 km/h (5 Bft) 93,62 %
27.04.2016 01:20 3,1 C 3,3 C 1,7 C 92 % 0 lf 1001,2 hPa 0,0 l/m 0 min 0 min 0 W/m 25,1 km/h (4 Bft) 94,55 %
27.04.2016 01:22 3,1 C 3,3 C 1,7 C 92 % 0 lf 1001,2 hPa 0,0 l/m 0 min 0 min 0 W/m 29,3 km/h (5 Bft) 96,00 %
27.04.2016 01:24 3,1 C 3,3 C 2,2 C 92 % 0 lf 1001,3 hPa 0,0 l/m 0 min 0 min 0 W/m 31,4 km/h (5 Bft) 100,00 %
27.04.2016 01:26 3,1 C 3,3 C 2,2 C 92 % 1 lf 1001,2 hPa 0,0 l/m 0 min 0 min 0 W/m 25,1 km/h (4 Bft) 100,00 %
27.04.2016 01:28 3,1 C 3,3 C 2,2 C 92 % 0 lf 1001,2 hPa 0,0 l/m 0 min 0 min 0 W/m 39,7 km/h (6 Bft) 97,87 %
27.04.2016 01:30 3,1 C 3,3 C 2,2 C 93 % 0 lf 1001,3 hPa 0,0 l/m 0 min 0 min 0 W/m 35,6 km/h (5 Bft) 100,00 %
27.04.2016 01:32 3,1 C 3,3 C 2,2 C 92 % 0 lf 1001,2 hPa 0,0 l/m 0 min 0 min 0 W/m 37,7 km/h (5 Bft) 100,00 %
27.04.2016 01:34 3,2 C 3,3 C 2,2 C 92 % 0 lf 1001,2 hPa 0,0 l/m 0 min 0 min 0 W/m 37,7 km/h (5 Bft) 97,87 %
27.04.2016 01:36 3,2 C 3,3 C 2,2 C 92 % 0 lf 1001,3 hPa 0,0 l/m 0 min 0 min 0 W/m 35,6 km/h (5 Bft) 100,00 %
27.04.2016 01:38 3,2 C 3,3 C 2,2 C 92 % 1 lf 1001,1 hPa 0,0 l/m 0 min 0 min 0 W/m 48,1 km/h (6 Bft) 100,00 %
27.04.2016 01:40 3,2 C 3,3 C 2,2 C 92 % 0 lf 1001,1 hPa 0,0 l/m 0 min 0 min 0 W/m 35,6 km/h (5 Bft) 97,83 %
27.04.2016 01:42 3,2 C 3,3 C 2,2 C 92 % 1 lf 1001,1 hPa 0,0 l/m 0 min 0 min 0 W/m 37,7 km/h (5 Bft) 95,74 %
27.04.2016 01:44 3,3 C 3,3 C 2,2 C 92 % 1 lf 1001,0 hPa 0,0 l/m 0 min 0 min 0 W/m 29,3 km/h (5 Bft) 97,87 %
27.04.2016 01:46 3,3 C 3,3 C 2,2 C 92 % 0 lf 1001,2 hPa 0,0 l/m 0 min 0 min 0 W/m 35,6 km/h (5 Bft) 100,00 %
27.04.2016 01:48 3,3 C 3,3 C 2,2 C 92 % 0 lf 1001,1 hPa 0,0 l/m 0 min 0 min 0 W/m 37,7 km/h (5 Bft) 100,00 %
27.04.2016 01:50 3,3 C 3,3 C 2,2 C 92 % 0 lf 1001,1 hPa 0,0 l/m 0 min 0 min 0 W/m 41,8 km/h (6 Bft) 100,00 %
27.04.2016 01:52 3,3 C 3,3 C 2,2 C 92 % 2 lf 1001,0 hPa 0,0 l/m 0 min 2 min 0 W/m 35,6 km/h (5 Bft) 97,83 %
27.04.2016 01:54 3,3 C 3,3 C 2,2 C 92 % 14 lf 1001,1 hPa 0,0 l/m 0 min 2 min 0 W/m 41,8 km/h (6 Bft) 97,87 %
27.04.2016 01:56 3,3 C 3,3 C 1,7 C 92 % 15 lf 1001,1 hPa 0,0 l/m 0 min 2 min 0 W/m 37,7 km/h (5 Bft) 100,00 %
27.04.2016 01:58 3,3 C 3,3 C 1,7 C 92 % 15 lf 1001,1 hPa 0,0 l/m 0 min 2 min 0 W/m 35,6 km/h (5 Bft) 95,74 %
27.04.2016 02:00 3,3 C 3,3 C 1,7 C 92 % 15 lf 1001,0 hPa 0,0 l/m 0 min 2 min 0 W/m 35,6 km/h (5 Bft) 100,00 %
27.04.2016 02:02 3,3 C 3,3 C 1,7 C 92 % 15 lf 1001,1 hPa 0,0 l/m 0 min 2 min 0 W/m 31,4 km/h (5 Bft) 100,00 %
27.04.2016 02:04 3,3 C 3,3 C 1,7 C 92 % 15 lf 1001,2 hPa 0,0 l/m 0 min 2 min 0 W/m 33,5 km/h (5 Bft) 100,00 %
27.04.2016 02:06 3,3 C 3,3 C 1,7 C 92 % 15 lf 1001,1 hPa 0,0 l/m 0 min 2 min 0 W/m 29,3 km/h (5 Bft) 95,74 %
27.04.2016 02:08 3,3 C 3,3 C 1,7 C 92 % 15 lf 1001,1 hPa 0,0 l/m 0 min 2 min 0 W/m 29,3 km/h (5 Bft) 100,00 %
27.04.2016 02:10 3,3 C 3,3 C 1,7 C 92 % 15 lf 1001,1 hPa 0,0 l/m 0 min 2 min 0 W/m 25,1 km/h (4 Bft) 93,62 %
27.04.2016 02:12 3,3 C 3,3 C 1,7 C 92 % 15 lf 1001,0 hPa 0,0 l/m 0 min 2 min 0 W/m 33,5 km/h (5 Bft) 95,74 %
27.04.2016 02:14 3,3 C 3,3 C 1,7 C 92 % 15 lf 1001,0 hPa 0,0 l/m 0 min 2 min 0 W/m 29,3 km/h (5 Bft) 100,00 %
27.04.2016 02:16 3,3 C 3,3 C 1,7 C 92 % 15 lf 1001,0 hPa 0,0 l/m 0 min 2 min 0 W/m 25,1 km/h (4 Bft) 95,65 %
27.04.2016 02:18 3,3 C 3,3 C 1,7 C 93 % 15 lf 1001,1 hPa 0,0 l/m 0 min 0 min 0 W/m 31,4 km/h (5 Bft) 100,00 %
27.04.2016 02:20 3,3 C 3,3 C 2,2 C 93 % 15 lf 1001,1 hPa 0,0 l/m 0 min 2 min 0 W/m 27,2 km/h (4 Bft) 100,00 %
27.04.2016 02:22 3,2 C 3,3 C 2,2 C 93 % 15 lf 1001,0 hPa 0,0 l/m 0 min 0 min 0 W/m 27,2 km/h (4 Bft) 100,00 %
27.04.2016 02:24 3,3 C 3,3 C 2,2 C 93 % 15 lf 1001,1 hPa 0,0 l/m 0 min 0 min 0 W/m 25,1 km/h (4 Bft) 100,00 %
27.04.2016 02:26 3,2 C 3,3 C 2,2 C 93 % 15 lf 1001,1 hPa 0,0 l/m 0 min 2 min 0 W/m 27,2 km/h (4 Bft) 100,00 %
27.04.2016 02:28 3,2 C 3,3 C 1,7 C 93 % 15 lf 1001,1 hPa 0,0 l/m 0 min 2 min 0 W/m 39,7 km/h (6 Bft) 100,00 %
27.04.2016 02:30 3,2 C 3,3 C 1,7 C 93 % 14 lf 1001,0 hPa 0,0 l/m 0 min 2 min 0 W/m 33,5 km/h (5 Bft) 97,87 %
27.04.2016 02:32 3,2 C 3,3 C 2,2 C 93 % 14 lf 1001,0 hPa 0,0 l/m 0 min 2 min 0 W/m 33,5 km/h (5 Bft) 97,87 %
27.04.2016 02:34 3,2 C 3,3 C 2,2 C 93 % 14 lf 1001,0 hPa 0,0 l/m 0 min 2 min 0 W/m 33,5 km/h (5 Bft) 97,87 %
27.04.2016 02:36 3,2 C 3,3 C 2,2 C 93 % 13 lf 1001,0 hPa 0,0 l/m 0 min 2 min 0 W/m 33,5 km/h (5 Bft) 95,74 %
27.04.2016 02:38 3,2 C 3,3 C 2,2 C 93 % 12 lf 1000,9 hPa 0,0 l/m 0 min 2 min 0 W/m 39,7 km/h (6 Bft) 93,62 %
27.04.2016 02:40 3,2 C 3,3 C 2,2 C 93 % 11 lf 1001,0 hPa 0,0 l/m 0 min 2 min 0 W/m 29,3 km/h (5 Bft) 95,65 %
27.04.2016 02:42 3,2 C 3,3 C 2,2 C 93 % 10 lf 1000,9 hPa 0,0 l/m 0 min 2 min 0 W/m 35,6 km/h (5 Bft) 91,49 %
27.04.2016 02:44 3,2 C 3,3 C 2,2 C 93 % 9 lf 1000,9 hPa 0,0 l/m 0 min 2 min 0 W/m 35,6 km/h (5 Bft) 92,00 %
27.04.2016 02:46 3,2 C 3,3 C 2,2 C 93 % 7 lf 1000,9 hPa 0,0 l/m 0 min 2 min 0 W/m 31,4 km/h (5 Bft) 91,49 %
27.04.2016 02:48 3,2 C 3,3 C 2,2 C 93 % 5 lf 1001,0 hPa 0,0 l/m 0 min 2 min 0 W/m 33,5 km/h (5 Bft) 91,49 %
27.04.2016 02:50 3,2 C 3,3 C 2,2 C 93 % 5 lf 1001,0 hPa 0,0 l/m 0 min 2 min 0 W/m 46,0 km/h (6 Bft) 86,96 %
27.04.2016 02:52 3,1 C 3,3 C 2,2 C 93 % 9 lf 1001,1 hPa 0,0 l/m 0 min 2 min 0 W/m 39,7 km/h (6 Bft) 89,36 %
27.04.2016 02:54 3,1 C 3,3 C 1,7 C 93 % 12 lf 1001,0 hPa 0,0 l/m 0 min 2 min 0 W/m 39,7 km/h (6 Bft) 93,62 %
27.04.2016 02:56 3,1 C 3,3 C 1,7 C 93 % 14 lf 1001,0 hPa 0,0 l/m 0 min 2 min 0 W/m 37,7 km/h (5 Bft) 91,49 %
27.04.2016 02:58 3,1 C 3,3 C 1,7 C 93 % 15 lf 1001,0 hPa 0,0 l/m 0 min 2 min 0 W/m 27,2 km/h (4 Bft) 89,36 %
27.04.2016 03:00 3,1 C 3,3 C 1,7 C 93 % 15 lf 1001,1 hPa 0,0 l/m 0 min 2 min 0 W/m 39,7 km/h (6 Bft) 93,62 %
27.04.2016 03:02 3,1 C 3,3 C 1,7 C 93 % 15 lf 1001,0 hPa 0,0 l/m 0 min 2 min 0 W/m 35,6 km/h (5 Bft) 88,57 %
27.04.2016 03:04 3,1 C 2,8 C 1,7 C 93 % 15 lf 1001,0 hPa 0,0 l/m 0 min 2 min 0 W/m 33,5 km/h (5 Bft) 91,49 %
27.04.2016 03:06 3,0 C 2,8 C 1,7 C 93 % 15 lf 1001,0 hPa 0,0 l/m 0 min 2 min 0 W/m 33,5 km/h (5 Bft) 91,49 %
27.04.2016 03:08 3,0 C 2,8 C 1,7 C 93 % 15 lf 1001,0 hPa 0,0 l/m 0 min 2 min 0 W/m 31,4 km/h (5 Bft) 93,62 %
27.04.2016 03:10 3,0 C 2,8 C 1,7 C 93 % 15 lf 1000,9 hPa 0,0 l/m 0 min 2 min 0 W/m 33,5 km/h (5 Bft) 93,62 %
27.04.2016 03:12 3,0 C 2,8 C 1,7 C 93 % 15 lf 1001,0 hPa 0,0 l/m 0 min 2 min 0 W/m 33,5 km/h (5 Bft) 89,13 %
27.04.2016 03:14 2,9 C 2,8 C 1,7 C 93 % 15 lf 1001,1 hPa 0,0 l/m 0 min 2 min 0 W/m 31,4 km/h (5 Bft) 89,36 %
27.04.2016 03:16 2,9 C 2,8 C 1,7 C 93 % 15 lf 1001,0 hPa 0,2 l/m 0 min 2 min 0 W/m 39,7 km/h (6 Bft) 93,62 %
27.04.2016 03:18 2,9 C 2,2 C 1,1 C 93 % 15 lf 1001,0 hPa 0,0 l/m 0 min 2 min 0 W/m 37,7 km/h (5 Bft) 91,49 %
27.04.2016 03:20 2,9 C 2,2 C 1,1 C 93 % 15 lf 1001,0 hPa 0,2 l/m 0 min 2 min 0 W/m 35,6 km/h (5 Bft) 91,49 %
27.04.2016 03:22 2,8 C 2,2 C 1,1 C 93 % 15 lf 1001,0 hPa 0,0 l/m 0 min 2 min 0 W/m 35,6 km/h (5 Bft) 95,74 %
27.04.2016 03:24 2,8 C 2,2 C 1,1 C 93 % 15 lf 1001,0 hPa 0,2 l/m 0 min 2 min 0 W/m 29,3 km/h (5 Bft) 89,13 %
27.04.2016 03:26 2,8 C 2,2 C 1,1 C 93 % 15 lf 1001,0 hPa 0,0 l/m 0 min 2 min 0 W/m 33,5 km/h (5 Bft) 93,62 %
27.04.2016 03:28 2,7 C 2,2 C 1,1 C 93 % 15 lf 1001,0 hPa 0,0 l/m 0 min 2 min 0 W/m 35,6 km/h (5 Bft) 93,62 %
27.04.2016 03:30 2,7 C 2,2 C 1,7 C 93 % 15 lf 1001,0 hPa 0,0 l/m 0 min 0 min 0 W/m 27,2 km/h (4 Bft) 95,74 %
27.04.2016 03:32 2,7 C 2,2 C 1,7 C 93 % 15 lf 1000,9 hPa 0,0 l/m 0 min 0 min 0 W/m 33,5 km/h (5 Bft) 95,74 %
27.04.2016 03:34 2,7 C 2,2 C 1,7 C 93 % 15 lf 1001,0 hPa 0,0 l/m 0 min 0 min 0 W/m 31,4 km/h (5 Bft) 94,55 %
27.04.2016 03:36 2,7 C 2,8 C 1,7 C 93 % 15 lf 1001,1 hPa 0,0 l/m 0 min 0 min 0 W/m 27,2 km/h (4 Bft) 93,62 %
27.04.2016 03:38 2,7 C 2,8 C 1,7 C 93 % 15 lf 1001,0 hPa 0,0 l/m 0 min 0 min 0 W/m 35,6 km/h (5 Bft) 93,88 %
27.04.2016 03:40 2,7 C 2,8 C 1,7 C 93 % 15 lf 1001,0 hPa 0,2 l/m 0 min 0 min 0 W/m 39,7 km/h (6 Bft) 89,36 %
27.04.2016 03:42 2,7 C 2,8 C 1,7 C 94 % 15 lf 1001,0 hPa 0,0 l/m 0 min 0 min 0 W/m 33,5 km/h (5 Bft) 93,62 %
27.04.2016 03:44 2,7 C 2,8 C 1,7 C 94 % 15 lf 1001,0 hPa 0,0 l/m 0 min 0 min 0 W/m 41,8 km/h (6 Bft) 94,44 %
27.04.2016 03:46 2,7 C 2,8 C 1,7 C 94 % 15 lf 1001,0 hPa 0,0 l/m 0 min 0 min 0 W/m 29,3 km/h (5 Bft) 93,62 %
27.04.2016 03:48 2,7 C 2,8 C 1,7 C 94 % 15 lf 1001,0 hPa 0,0 l/m 0 min 0 min 0 W/m 46,0 km/h (6 Bft) 95,65 %
27.04.2016 03:50 2,7 C 2,8 C 1,7 C 94 % 15 lf 1000,9 hPa 0,0 l/m 0 min 0 min 0 W/m 33,5 km/h (5 Bft) 93,62 %
27.04.2016 03:52 2,7 C 2,8 C 1,7 C 94 % 15 lf 1000,9 hPa 0,0 l/m 0 min 0 min 0 W/m 37,7 km/h (5 Bft) 95,74 %
27.04.2016 03:54 2,7 C 2,8 C 1,7 C 94 % 15 lf 1001,0 hPa 0,0 l/m 0 min 0 min 0 W/m 35,6 km/h (5 Bft) 93,62 %
27.04.2016 03:56 2,7 C 2,8 C 1,7 C 94 % 15 lf 1000,9 hPa 0,0 l/m 0 min 0 min 0 W/m 37,7 km/h (5 Bft) 100,00 %
27.04.2016 03:58 2,7 C 2,8 C 1,7 C 94 % 15 lf 1000,9 hPa 0,0 l/m 0 min 0 min 0 W/m 33,5 km/h (5 Bft) 97,87 %
27.04.2016 04:00 2,7 C 2,8 C 1,7 C 94 % 15 lf 1001,0 hPa 0,0 l/m 0 min 0 min 0 W/m 29,3 km/h (5 Bft) 100,00 %
27.04.2016 04:05 2,8 C 2,8 C 1,7 C 94 % 15 lf 1001,0 hPa 0,0 l/m 0 min 0 min 0 W/m 33,5 km/h (5 Bft) 100,00 %
27.04.2016 04:06 2,8 C 2,8 C 1,7 C 94 % 15 lf 1001,0 hPa 0,0 l/m 0 min 0 min 0 W/m 37,7 km/h (5 Bft) 100,00 %
27.04.2016 04:08 2,8 C 2,8 C 1,7 C 94 % 15 lf 1001,0 hPa 0,0 l/m 0 min 0 min 0 W/m 37,7 km/h (5 Bft) 97,87 %
27.04.2016 04:10 2,8 C 2,8 C 1,7 C 94 % 15 lf 1001,1 hPa 0,0 l/m 0 min 0 min 0 W/m 31,4 km/h (5 Bft) 100,00 %
27.04.2016 04:12 2,8 C 2,8 C 1,7 C 94 % 15 lf 1001,1 hPa 0,0 l/m 0 min 0 min 0 W/m 33,5 km/h (5 Bft) 93,62 %
27.04.2016 04:14 2,8 C 2,8 C 1,7 C 94 % 15 lf 1001,0 hPa 0,0 l/m 0 min 0 min 0 W/m 46,0 km/h (6 Bft) 97,83 %
27.04.2016 04:16 2,8 C 2,8 C 1,7 C 95 % 15 lf 1001,1 hPa 0,0 l/m 0 min 0 min 0 W/m 37,7 km/h (5 Bft) 100,00 %
27.04.2016 04:18 2,8 C 2,8 C 1,7 C 95 % 15 lf 1001,1 hPa 0,0 l/m 0 min 0 min 0 W/m 39,7 km/h (6 Bft) 95,74 %
27.04.2016 04:20 2,8 C 2,8 C 1,7 C 95 % 15 lf 1001,0 hPa 0,0 l/m 0 min 0 min 0 W/m 50,2 km/h (7 Bft) 97,87 %
27.04.2016 04:22 2,8 C 2,8 C 1,7 C 94 % 15 lf 1001,0 hPa 0,0 l/m 0 min 0 min 0 W/m 37,7 km/h (5 Bft) 100,00 %
27.04.2016 04:24 2,9 C 2,8 C 1,7 C 95 % 15 lf 1001,0 hPa 0,0 l/m 0 min 0 min 0 W/m 33,5 km/h (5 Bft) 97,87 %
27.04.2016 04:26 2,9 C 2,8 C 1,7 C 95 % 15 lf 1001,1 hPa 0,0 l/m 0 min 0 min 0 W/m 33,5 km/h (5 Bft) 100,00 %
27.04.2016 04:28 2,9 C 2,8 C 1,7 C 95 % 15 lf 1001,1 hPa 0,0 l/m 0 min 0 min 0 W/m 39,7 km/h (6 Bft) 95,74 %
27.04.2016 04:30 2,9 C 2,8 C 1,7 C 95 % 15 lf 1001,0 hPa 0,0 l/m 0 min 0 min 0 W/m 37,7 km/h (5 Bft) 91,49 %
27.04.2016 04:32 2,9 C 2,8 C 1,7 C 95 % 15 lf 1001,1 hPa 0,0 l/m 0 min 0 min 0 W/m 43,9 km/h (6 Bft) 97,87 %
27.04.2016 04:34 2,9 C 2,8 C 1,7 C 95 % 15 lf 1001,0 hPa 0,0 l/m 0 min 0 min 0 W/m 35,6 km/h (5 Bft) 95,74 %
27.04.2016 04:36 2,9 C 2,8 C 1,7 C 95 % 15 lf 1001,0 hPa 0,0 l/m 0 min 2 min 0 W/m 29,3 km/h (5 Bft) 95,74 %
27.04.2016 04:38 2,9 C 2,8 C 1,7 C 95 % 15 lf 1001,1 hPa 0,0 l/m 0 min 2 min 0 W/m 41,8 km/h (6 Bft) 97,83 %
27.04.2016 04:40 2,9 C 2,8 C 1,7 C 95 % 15 lf 1001,0 hPa 0,0 l/m 0 min 2 min 0 W/m 37,7 km/h (5 Bft) 97,87 %
27.04.2016 04:42 2,9 C 2,8 C 1,7 C 95 % 15 lf 1001,0 hPa 0,0 l/m 0 min 2 min 0 W/m 29,3 km/h (5 Bft) 93,62 %
27.04.2016 04:44 2,9 C 2,8 C 1,7 C 95 % 15 lf 1001,0 hPa 0,0 l/m 0 min 2 min 0 W/m 37,7 km/h (5 Bft) 93,62 %
27.04.2016 04:46 2,9 C 2,8 C 1,7 C 95 % 15 lf 1001,0 hPa 0,0 l/m 0 min 2 min 0 W/m 35,6 km/h (5 Bft) 97,87 %
27.04.2016 04:48 3,0 C 2,8 C 1,7 C 95 % 15 lf 1001,0 hPa 0,0 l/m 0 min 2 min 0 W/m 29,3 km/h (5 Bft) 95,74 %
27.04.2016 04:50 3,0 C 2,8 C 1,7 C 95 % 15 lf 1001,0 hPa 0,0 l/m 0 min 2 min 0 W/m 41,8 km/h (6 Bft) 95,65 %
27.04.2016 04:52 3,0 C 2,8 C 1,7 C 95 % 15 lf 1001,0 hPa 0,2 l/m 0 min 2 min 0 W/m 37,7 km/h (5 Bft) 97,87 %
27.04.2016 04:54 3,0 C 2,8 C 1,7 C 95 % 15 lf 1001,0 hPa 0,0 l/m 0 min 2 min 0 W/m 33,5 km/h (5 Bft) 97,87 %
27.04.2016 04:56 3,0 C 2,8 C 1,7 C 95 % 15 lf 1001,0 hPa 0,0 l/m 0 min 2 min 0 W/m 37,7 km/h (5 Bft) 97,87 %
27.04.2016 04:58 3,0 C 2,8 C 1,7 C 95 % 15 lf 1000,9 hPa 0,0 l/m 0 min 2 min 0 W/m 46,0 km/h (6 Bft) 93,62 %
27.04.2016 05:00 3,1 C 2,8 C 1,7 C 95 % 15 lf 1001,0 hPa 0,0 l/m 0 min 2 min 0 W/m 33,5 km/h (5 Bft) 97,83 %
27.04.2016 05:02 3,1 C 2,8 C 1,7 C 95 % 15 lf 1001,1 hPa 0,0 l/m 0 min 2 min 0 W/m 46,0 km/h (6 Bft) 97,87 %
27.04.2016 05:04 3,1 C 2,8 C 1,7 C 95 % 15 lf 1001,0 hPa 0,0 l/m 0 min 2 min 0 W/m 54,4 km/h (7 Bft) 93,62 %
27.04.2016 05:06 3,1 C 2,8 C 1,7 C 95 % 15 lf 1001,0 hPa 0,2 l/m 0 min 2 min 0 W/m 33,5 km/h (5 Bft) 97,87 %
27.04.2016 05:08 3,0 C 2,8 C 1,7 C 95 % 15 lf 1001,0 hPa 0,0 l/m 0 min 2 min 0 W/m 41,8 km/h (6 Bft) 97,87 %
27.04.2016 05:10 3,0 C 2,8 C 1,7 C 95 % 15 lf 1001,0 hPa 0,0 l/m 0 min 2 min 0 W/m 41,8 km/h (6 Bft) 97,87 %
27.04.2016 05:12 3,0 C 2,8 C 1,7 C 95 % 15 lf 1001,1 hPa 0,0 l/m 0 min 2 min 0 W/m 41,8 km/h (6 Bft) 100,00 %
27.04.2016 05:14 3,0 C 2,8 C 1,7 C 95 % 15 lf 1001,0 hPa 0,0 l/m 0 min 2 min 0 W/m 43,9 km/h (6 Bft) 95,74 %
27.04.2016 05:16 3,0 C 2,8 C 1,7 C 95 % 15 lf 1001,0 hPa 0,0 l/m 0 min 2 min 0 W/m 41,8 km/h (6 Bft) 100,00 %
27.04.2016 05:18 3,0 C 2,8 C 1,7 C 95 % 15 lf 1001,0 hPa 0,0 l/m 0 min 2 min 0 W/m 39,7 km/h (6 Bft) 93,62 %
27.04.2016 05:20 2,9 C 2,8 C 1,7 C 95 % 15 lf 1001,0 hPa 0,0 l/m 0 min 2 min 0 W/m 41,8 km/h (6 Bft) 100,00 %
27.04.2016 05:22 2,9 C 2,8 C 1,7 C 95 % 15 lf 1001,0 hPa 0,2 l/m 0 min 2 min 0 W/m 41,8 km/h (6 Bft) 97,87 %
27.04.2016 05:24 2,9 C 2,8 C 1,7 C 95 % 15 lf 1001,1 hPa 0,0 l/m 0 min 2 min 0 W/m 46,0 km/h (6 Bft) 100,00 %
27.04.2016 05:26 2,9 C 2,8 C 1,7 C 95 % 15 lf 1001,0 hPa 0,0 l/m 0 min 2 min 0 W/m 39,7 km/h (6 Bft) 100,00 %
27.04.2016 05:28 2,9 C 2,8 C 1,7 C 95 % 15 lf 1001,0 hPa 0,0 l/m 0 min 2 min 0 W/m 39,7 km/h (6 Bft) 95,74 %
27.04.2016 05:30 2,9 C 2,8 C 1,7 C 95 % 15 lf 1001,1 hPa 0,0 l/m 0 min 2 min 0 W/m 43,9 km/h (6 Bft) 95,74 %
27.04.2016 05:32 2,9 C 2,8 C 1,7 C 95 % 15 lf 1001,1 hPa 0,0 l/m 0 min 2 min 0 W/m 27,2 km/h (4 Bft) 97,87 %
27.04.2016 05:34 2,9 C 2,8 C 1,7 C 95 % 15 lf 1001,1 hPa 0,0 l/m 0 min 2 min 0 W/m 31,4 km/h (5 Bft) 97,87 %
27.04.2016 05:36 2,9 C 2,8 C 1,7 C 95 % 15 lf 1001,1 hPa 0,0 l/m 0 min 2 min 0 W/m 33,5 km/h (5 Bft) 89,13 %
27.04.2016 05:38 2,9 C 2,8 C 1,7 C 95 % 15 lf 1001,1 hPa 0,0 l/m 0 min 2 min 0 W/m 35,6 km/h (5 Bft) 100,00 %
27.04.2016 05:40 2,9 C 2,8 C 1,7 C 95 % 15 lf 1001,1 hPa 0,0 l/m 0 min 2 min 0 W/m 35,6 km/h (5 Bft) 91,49 %
27.04.2016 05:42 2,8 C 2,8 C 1,7 C 95 % 15 lf 1001,1 hPa 0,0 l/m 0 min 2 min 0 W/m 31,4 km/h (5 Bft) 95,74 %
27.04.2016 05:44 2,8 C 2,8 C 1,7 C 95 % 15 lf 1001,1 hPa 0,0 l/m 0 min 2 min 0 W/m 35,6 km/h (5 Bft) 97,87 %
27.04.2016 05:46 2,8 C 2,8 C 1,7 C 95 % 15 lf 1001,1 hPa 0,0 l/m 0 min 2 min 0 W/m 29,3 km/h (5 Bft) 95,74 %
27.04.2016 05:48 2,8 C 2,8 C 1,7 C 95 % 15 lf 1001,1 hPa 0,0 l/m 0 min 2 min 0 W/m 27,2 km/h (4 Bft) 97,83 %
27.04.2016 05:50 2,8 C 2,8 C 1,7 C 95 % 15 lf 1001,1 hPa 0,2 l/m 0 min 2 min 0 W/m 25,1 km/h (4 Bft) 95,74 %
27.04.2016 05:52 2,8 C 2,8 C 1,7 C 95 % 15 lf 1001,2 hPa 0,0 l/m 0 min 2 min 0 W/m 35,6 km/h (5 Bft) 93,62 %
27.04.2016 05:54 2,8 C 2,8 C 1,7 C 95 % 15 lf 1001,2 hPa 0,0 l/m 0 min 2 min 0 W/m 43,9 km/h (6 Bft) 95,74 %
27.04.2016 05:56 2,8 C 2,8 C 1,7 C 95 % 15 lf 1001,2 hPa 0,0 l/m 0 min 2 min 0 W/m 37,7 km/h (5 Bft) 93,62 %
27.04.2016 05:58 2,8 C 2,8 C 1,7 C 95 % 15 lf 1001,2 hPa 0,0 l/m 0 min 2 min 0 W/m 27,2 km/h (4 Bft) 93,48 %
27.04.2016 06:00 2,8 C 2,8 C 1,7 C 95 % 15 lf 1001,2 hPa 0,0 l/m 0 min 2 min 0 W/m 29,3 km/h (5 Bft) 93,62 %
27.04.2016 06:02 2,8 C 2,8 C 1,7 C 95 % 15 lf 1001,1 hPa 0,0 l/m 0 min 0 min 0 W/m 31,4 km/h (5 Bft) 95,74 %
27.04.2016 06:04 2,8 C 2,8 C 1,7 C 95 % 15 lf 1001,1 hPa 0,0 l/m 0 min 0 min 0 W/m 35,6 km/h (5 Bft) 89,58 %
27.04.2016 06:06 2,8 C 2,8 C 1,7 C 95 % 15 lf 1001,1 hPa 0,0 l/m 0 min 0 min 0 W/m 33,5 km/h (5 Bft) 93,48 %
27.04.2016 06:08 2,8 C 2,8 C 1,7 C 95 % 15 lf 1001,1 hPa 0,0 l/m 0 min 0 min 0 W/m 33,5 km/h (5 Bft) 91,49 %
27.04.2016 06:10 2,8 C 2,8 C 1,7 C 95 % 15 lf 1001,2 hPa 0,0 l/m 0 min 2 min 0 W/m 31,4 km/h (5 Bft) 89,36 %
27.04.2016 06:12 2,8 C 2,8 C 1,7 C 95 % 15 lf 1001,2 hPa 0,0 l/m 0 min 0 min 0 W/m 33,5 km/h (5 Bft) 95,74 %
27.04.2016 06:14 2,8 C 2,8 C 1,7 C 95 % 15 lf 1001,2 hPa 0,0 l/m 0 min 0 min 0 W/m 31,4 km/h (5 Bft) 91,49 %
27.04.2016 06:16 2,8 C 2,8 C 1,7 C 95 % 15 lf 1001,2 hPa 0,0 l/m 0 min 0 min 0 W/m 41,8 km/h (6 Bft) 93,62 %
27.04.2016 06:18 2,8 C 2,8 C 1,7 C 95 % 15 lf 1001,1 hPa 0,2 l/m 0 min 0 min 0 W/m 35,6 km/h (5 Bft) 91,30 %
27.04.2016 06:20 2,8 C 2,8 C 1,7 C 95 % 15 lf 1001,1 hPa 0,0 l/m 0 min 0 min 0 W/m 25,1 km/h (4 Bft) 91,49 %
27.04.2016 06:22 2,8 C 2,8 C 1,7 C 95 % 15 lf 1001,1 hPa 0,0 l/m 0 min 2 min 0 W/m 37,7 km/h (5 Bft) 93,62 %
27.04.2016 06:24 2,8 C 2,8 C 1,7 C 95 % 15 lf 1001,2 hPa 0,0 l/m 0 min 2 min 0 W/m 43,9 km/h (6 Bft) 93,62 %
27.04.2016 06:26 2,8 C 2,8 C 1,7 C 95 % 15 lf 1001,2 hPa 0,0 l/m 0 min 2 min 0 W/m 29,3 km/h (5 Bft) 93,62 %
27.04.2016 06:28 2,8 C 2,8 C 1,7 C 95 % 15 lf 1001,2 hPa 0,0 l/m 0 min 2 min 0 W/m 29,3 km/h (5 Bft) 95,74 %
27.04.2016 06:30 2,8 C 2,8 C 1,7 C 95 % 15 lf 1001,2 hPa 0,0 l/m 0 min 2 min 4 W/m 37,7 km/h (5 Bft) 93,48 %
27.04.2016 06:32 2,8 C 2,8 C 1,7 C 95 % 15 lf 1001,2 hPa 0,0 l/m 0 min 2 min 6 W/m 52,3 km/h (7 Bft) 93,62 %
27.04.2016 06:34 2,9 C 2,8 C 1,7 C 95 % 15 lf 1001,1 hPa 0,0 l/m 0 min 2 min 7 W/m 39,7 km/h (6 Bft) 89,36 %
27.04.2016 06:36 2,9 C 2,8 C 1,7 C 95 % 15 lf 1001,2 hPa 0,0 l/m 0 min 2 min 8 W/m 33,5 km/h (5 Bft) 93,62 %
27.04.2016 06:38 2,9 C 2,8 C 1,7 C 95 % 15 lf 1001,3 hPa 0,0 l/m 0 min 2 min 8 W/m 33,5 km/h (5 Bft) 91,49 %
27.04.2016 06:40 2,9 C 2,8 C 1,7 C 95 % 15 lf 1001,3 hPa 0,0 l/m 0 min 2 min 10 W/m 25,1 km/h (4 Bft) 93,62 %
27.04.2016 06:42 2,9 C 2,8 C 1,7 C 95 % 15 lf 1001,3 hPa 0,0 l/m 0 min 2 min 13 W/m 33,5 km/h (5 Bft) 95,65 %
27.04.2016 06:44 2,9 C 2,8 C 1,7 C 95 % 15 lf 1001,2 hPa 0,0 l/m 0 min 2 min 14 W/m 37,7 km/h (5 Bft) 97,87 %
27.04.2016 06:46 2,9 C 2,8 C 1,7 C 95 % 15 lf 1001,3 hPa 0,0 l/m 0 min 2 min 18 W/m 33,5 km/h (5 Bft) 97,87 %
27.04.2016 06:48 2,9 C 2,8 C 1,7 C 96 % 15 lf 1001,3 hPa 0,0 l/m 0 min 2 min 24 W/m 41,8 km/h (6 Bft) 95,74 %
27.04.2016 06:50 2,9 C 2,8 C 1,7 C 96 % 15 lf 1001,3 hPa 0,0 l/m 0 min 2 min 25 W/m 46,0 km/h (6 Bft) 95,74 %
27.04.2016 06:52 2,9 C 2,8 C 1,7 C 96 % 15 lf 1001,3 hPa 0,0 l/m 0 min 2 min 29 W/m 33,5 km/h (5 Bft) 100,00 %
27.04.2016 06:54 2,9 C 2,8 C 1,7 C 96 % 15 lf 1001,3 hPa 0,0 l/m 0 min 2 min 24 W/m 46,0 km/h (6 Bft) 97,83 %
27.04.2016 06:56 3,0 C 2,8 C 1,7 C 96 % 15 lf 1001,2 hPa 0,0 l/m 0 min 2 min 26 W/m 35,6 km/h (5 Bft) 97,87 %
27.04.2016 06:58 3,0 C 2,8 C 1,7 C 96 % 15 lf 1001,3 hPa 0,0 l/m 0 min 2 min 30 W/m 39,7 km/h (6 Bft) 100,00 %
27.04.2016 07:00 3,0 C 2,8 C 1,7 C 96 % 15 lf 1001,3 hPa 0,0 l/m 0 min 2 min 34 W/m 41,8 km/h (6 Bft) 95,74 %
27.04.2016 07:02 3,0 C 3,3 C 2,2 C 96 % 15 lf 1001,3 hPa 0,0 l/m 0 min 2 min 46 W/m 31,4 km/h (5 Bft) 95,74 %
27.04.2016 07:04 3,0 C 3,3 C 2,2 C 96 % 15 lf 1001,3 hPa 0,0 l/m 0 min 2 min 49 W/m 46,0 km/h (6 Bft) 97,83 %
27.04.2016 07:06 3,0 C 3,3 C 2,2 C 96 % 15 lf 1001,4 hPa 0,0 l/m 0 min 2 min 46 W/m 35,6 km/h (5 Bft) 97,87 %
27.04.2016 07:08 3,1 C 3,3 C 2,2 C 96 % 15 lf 1001,3 hPa 0,0 l/m 0 min 2 min 44 W/m 39,7 km/h (6 Bft) 95,74 %
27.04.2016 07:10 3,1 C 3,3 C 2,2 C 96 % 15 lf 1001,3 hPa 0,0 l/m 0 min 2 min 49 W/m 41,8 km/h (6 Bft) 97,87 %
27.04.2016 07:12 3,1 C 3,3 C 2,2 C 96 % 15 lf 1001,5 hPa 0,0 l/m 0 min 2 min 39 W/m 35,6 km/h (5 Bft) 97,87 %
27.04.2016 07:14 3,1 C 2,8 C 2,2 C 96 % 15 lf 1001,6 hPa 0,0 l/m 0 min 2 min 37 W/m 35,6 km/h (5 Bft) 97,87 %
27.04.2016 07:16 3,0 C 2,8 C 1,7 C 96 % 15 lf 1001,6 hPa 0,0 l/m 0 min 2 min 34 W/m 33,5 km/h (5 Bft) 97,83 %
27.04.2016 07:18 3,0 C 2,8 C 1,7 C 96 % 15 lf 1001,6 hPa 0,0 l/m 0 min 2 min 40 W/m 31,4 km/h (5 Bft) 95,74 %
27.04.2016 07:20 3,0 C 2,8 C 1,7 C 96 % 15 lf 1001,4 hPa 0,0 l/m 0 min 2 min 44 W/m 31,4 km/h (5 Bft) 97,87 %
27.04.2016 07:22 3,0 C 2,8 C 1,7 C 96 % 15 lf 1001,5 hPa 0,0 l/m 0 min 2 min 39 W/m 33,5 km/h (5 Bft) 97,87 %
27.04.2016 07:24 3,1 C 2,8 C 1,7 C 96 % 15 lf 1001,5 hPa 0,0 l/m 0 min 2 min 40 W/m 25,1 km/h (4 Bft) 95,74 %
27.04.2016 07:26 3,0 C 2,8 C 1,7 C 96 % 15 lf 1001,5 hPa 0,0 l/m 0 min 2 min 43 W/m 33,5 km/h (5 Bft) 93,62 %
27.04.2016 07:28 3,0 C 3,3 C 1,7 C 96 % 15 lf 1001,4 hPa 0,0 l/m 0 min 2 min 62 W/m 33,5 km/h (5 Bft) 97,83 %
27.04.2016 07:30 3,0 C 3,3 C 2,2 C 96 % 15 lf 1001,6 hPa 0,0 l/m 0 min 2 min 55 W/m 37,7 km/h (5 Bft) 97,87 %
27.04.2016 07:32 3,0 C 3,3 C 2,2 C 96 % 15 lf 1001,6 hPa 0,0 l/m 0 min 2 min 53 W/m 33,5 km/h (5 Bft) 97,87 %
27.04.2016 07:34 3,0 C 3,3 C 2,2 C 96 % 15 lf 1001,5 hPa 0,0 l/m 0 min 2 min 39 W/m 35,6 km/h (5 Bft) 97,87 %
27.04.2016 07:36 3,0 C 2,8 C 1,7 C 96 % 15 lf 1001,5 hPa 0,0 l/m 0 min 2 min 35 W/m 41,8 km/h (6 Bft) 95,74 %
27.04.2016 07:38 3,0 C 2,8 C 1,7 C 96 % 15 lf 1001,5 hPa 0,0 l/m 0 min 2 min 29 W/m 33,5 km/h (5 Bft) 93,62 %
27.04.2016 07:40 3,0 C 2,8 C 1,7 C 96 % 15 lf 1001,6 hPa 0,0 l/m 0 min 2 min 35 W/m 43,9 km/h (6 Bft) 97,83 %
27.04.2016 07:42 3,0 C 3,3 C 2,2 C 96 % 15 lf 1001,6 hPa 0,0 l/m 0 min 2 min 61 W/m 41,8 km/h (6 Bft) 95,74 %
27.04.2016 07:44 3,0 C 3,3 C 2,2 C 96 % 15 lf 1001,8 hPa 0,0 l/m 0 min 2 min 57 W/m 37,7 km/h (5 Bft) 97,87 %
27.04.2016 07:46 3,0 C 3,3 C 1,7 C 96 % 15 lf 1001,8 hPa 0,0 l/m 0 min 2 min 46 W/m 41,8 km/h (6 Bft) 97,87 %
27.04.2016 07:48 3,0 C 3,3 C 2,2 C 96 % 15 lf 1001,8 hPa 0,0 l/m 0 min 2 min 50 W/m 33,5 km/h (5 Bft) 93,62 %
27.04.2016 07:50 3,0 C 3,3 C 2,2 C 96 % 15 lf 1001,8 hPa 0,0 l/m 0 min 2 min 58 W/m 35,6 km/h (5 Bft) 95,74 %
27.04.2016 07:52 3,1 C 3,3 C 2,2 C 96 % 15 lf 1001,8 hPa 0,0 l/m 0 min 2 min 60 W/m 35,6 km/h (5 Bft) 97,83 %
27.04.2016 07:54 3,1 C 3,3 C 2,2 C 96 % 15 lf 1001,9 hPa 0,0 l/m 0 min 2 min 64 W/m 37,7 km/h (5 Bft) 95,74 %
27.04.2016 07:56 3,1 C 3,3 C 2,2 C 96 % 15 lf 1001,9 hPa 0,0 l/m 0 min 2 min 73 W/m 41,8 km/h (6 Bft) 95,74 %
27.04.2016 07:58 3,1 C 3,3 C 2,2 C 96 % 15 lf 1002,0 hPa 0,0 l/m 0 min 2 min 85 W/m 35,6 km/h (5 Bft) 97,87 %
27.04.2016 08:00 3,1 C 3,3 C 2,2 C 96 % 15 lf 1002,0 hPa 0,0 l/m 0 min 2 min 54 W/m 31,4 km/h (5 Bft) 97,87 %
27.04.2016 08:02 3,1 C 3,3 C 2,2 C 96 % 15 lf 1002,0 hPa 0,0 l/m 0 min 2 min 44 W/m 35,6 km/h (5 Bft) 95,65 %
27.04.2016 08:04 3,1 C 3,3 C 2,2 C 96 % 15 lf 1002,0 hPa 0,0 l/m 0 min 2 min 57 W/m 31,4 km/h (5 Bft) 97,87 %
27.04.2016 08:06 3,1 C 3,3 C 2,2 C 96 % 15 lf 1002,0 hPa 0,0 l/m 0 min 2 min 74 W/m 31,4 km/h (5 Bft) 97,87 %
27.04.2016 08:08 3,2 C 3,3 C 2,2 C 96 % 15 lf 1002,0 hPa 0,0 l/m 0 min 2 min 87 W/m 29,3 km/h (5 Bft) 95,74 %
27.04.2016 08:10 3,2 C 3,3 C 2,2 C 96 % 15 lf 1002,0 hPa 0,0 l/m 0 min 2 min 88 W/m 39,7 km/h (6 Bft) 95,74 %
27.04.2016 08:12 3,2 C 3,9 C 2,2 C 96 % 15 lf 1002,1 hPa 0,0 l/m 0 min 2 min 81 W/m 27,2 km/h (4 Bft) 97,87 %
27.04.2016 08:14 3,2 C 3,3 C 2,2 C 96 % 15 lf 1002,2 hPa 0,0 l/m 0 min 2 min 70 W/m 33,5 km/h (5 Bft) 95,65 %
27.04.2016 08:16 3,2 C 3,3 C 2,2 C 96 % 15 lf 1002,3 hPa 0,0 l/m 0 min 2 min 68 W/m 31,4 km/h (5 Bft) 91,49 %
27.04.2016 08:18 3,3 C 3,3 C 2,2 C 96 % 15 lf 1002,3 hPa 0,0 l/m 0 min 2 min 58 W/m 25,1 km/h (4 Bft) 97,87 %
27.04.2016 08:20 3,3 C 3,3 C 2,2 C 96 % 15 lf 1002,4 hPa 0,0 l/m 0 min 0 min 53 W/m 29,3 km/h (5 Bft) 93,62 %
27.04.2016 08:22 3,3 C 3,9 C 2,2 C 96 % 15 lf 1002,3 hPa 0,0 l/m 0 min 0 min 62 W/m 25,1 km/h (4 Bft) 95,74 %
27.04.2016 08:24 3,3 C 3,9 C 2,2 C 96 % 15 lf 1002,4 hPa 0,0 l/m 0 min 2 min 72 W/m 29,3 km/h (5 Bft) 97,87 %
27.04.2016 08:26 3,3 C 3,9 C 2,2 C 96 % 15 lf 1002,4 hPa 0,0 l/m 0 min 0 min 71 W/m 27,2 km/h (4 Bft) 95,65 %
27.04.2016 08:28 3,3 C 3,9 C 2,2 C 96 % 15 lf 1002,4 hPa 0,0 l/m 0 min 2 min 99 W/m 29,3 km/h (5 Bft) 91,49 %
27.04.2016 08:30 3,3 C 3,9 C 2,2 C 96 % 15 lf 1002,4 hPa 0,0 l/m 0 min 2 min 145 W/m 35,6 km/h (5 Bft) 93,62 %
27.04.2016 08:32 3,3 C 3,9 C 2,2 C 96 % 15 lf 1002,4 hPa 0,0 l/m 0 min 2 min 94 W/m 27,2 km/h (4 Bft) 91,49 %
27.04.2016 08:34 3,3 C 3,9 C 2,2 C 96 % 15 lf 1002,4 hPa 0,0 l/m 0 min 2 min 126 W/m 37,7 km/h (5 Bft) 95,74 %
27.04.2016 08:36 3,4 C 3,9 C 2,8 C 96 % 15 lf 1002,4 hPa 0,0 l/m 0 min 2 min 173 W/m 37,7 km/h (5 Bft) 93,62 %
27.04.2016 08:38 3,4 C 3,9 C 2,8 C 96 % 15 lf 1002,5 hPa 0,0 l/m 0 min 0 min 149 W/m 31,4 km/h (5 Bft) 95,65 %
27.04.2016 08:40 3,4 C 3,9 C 2,8 C 95 % 15 lf 1002,5 hPa 0,0 l/m 0 min 2 min 146 W/m 33,5 km/h (5 Bft) 93,62 %
27.04.2016 08:42 3,4 C 3,9 C 2,8 C 95 % 14 lf 1002,5 hPa 0,0 l/m 0 min 0 min 124 W/m 27,2 km/h (4 Bft) 93,62 %
27.04.2016 08:44 3,4 C 3,9 C 2,8 C 96 % 13 lf 1002,6 hPa 0,0 l/m 0 min 0 min 134 W/m 20,9 km/h (4 Bft) 95,74 %
27.04.2016 08:46 3,4 C 3,9 C 2,8 C 96 % 13 lf 1002,5 hPa 0,0 l/m 0 min 2 min 94 W/m 31,4 km/h (5 Bft) 89,36 %
27.04.2016 08:48 3,4 C 3,9 C 2,2 C 96 % 12 lf 1002,6 hPa 0,0 l/m 0 min 2 min 105 W/m 35,6 km/h (5 Bft) 95,74 %
27.04.2016 08:50 3,4 C 3,9 C 2,8 C 96 % 12 lf 1002,6 hPa 0,0 l/m 0 min 0 min 126 W/m 29,3 km/h (5 Bft) 95,65 %
27.04.2016 08:52 3,4 C 3,9 C 2,8 C 96 % 11 lf 1002,6 hPa 0,0 l/m 0 min 2 min 161 W/m 29,3 km/h (5 Bft) 95,74 %
27.04.2016 08:54 3,4 C 4,4 C 2,8 C 96 % 11 lf 1002,6 hPa 0,0 l/m 0 min 2 min 144 W/m 31,4 km/h (5 Bft) 95,74 %
27.04.2016 08:56 3,5 C 3,9 C 2,8 C 96 % 10 lf 1002,6 hPa 0,0 l/m 0 min 0 min 135 W/m 37,7 km/h (5 Bft) 93,62 %
27.04.2016 08:58 3,5 C 4,4 C 2,8 C 96 % 10 lf 1002,6 hPa 0,0 l/m 0 min 2 min 140 W/m 31,4 km/h (5 Bft) 85,11 %
27.04.2016 09:00 3,6 C 4,4 C 2,8 C 95 % 9 lf 1002,7 hPa 0,0 l/m 0 min 0 min 107 W/m 23,0 km/h (4 Bft) 93,62 %
27.04.2016 09:02 3,6 C 4,4 C 2,8 C 95 % 10 lf 1002,8 hPa 0,0 l/m 0 min 0 min 128 W/m 29,3 km/h (5 Bft) 91,30 %
27.04.2016 09:04 3,6 C 4,4 C 2,8 C 95 % 9 lf 1002,8 hPa 0,0 l/m 0 min 0 min 149 W/m 29,3 km/h (5 Bft) 95,74 %
27.04.2016 09:06 3,7 C 4,4 C 2,8 C 95 % 9 lf 1002,8 hPa 0,0 l/m 0 min 0 min 117 W/m 33,5 km/h (5 Bft) 95,74 %
27.04.2016 09:08 3,7 C 4,4 C 2,8 C 95 % 9 lf 1002,8 hPa 0,0 l/m 0 min 2 min 115 W/m 33,5 km/h (5 Bft) 93,62 %
27.04.2016 09:10 3,7 C 4,4 C 2,8 C 95 % 10 lf 1002,8 hPa 0,0 l/m 0 min 2 min 125 W/m 33,5 km/h (5 Bft) 95,74 %
27.04.2016 09:12 3,7 C 4,4 C 2,8 C 95 % 11 lf 1002,8 hPa 0,0 l/m 0 min 2 min 167 W/m 25,1 km/h (4 Bft) 95,74 %
27.04.2016 09:14 3,7 C 4,4 C 2,8 C 95 % 11 lf 1002,8 hPa 0,0 l/m 2 min 2 min 240 W/m 35,6 km/h (5 Bft) 93,48 %
27.04.2016 09:16 3,7 C 4,4 C 2,8 C 95 % 11 lf 1002,9 hPa 0,0 l/m 2 min 0 min 232 W/m 37,7 km/h (5 Bft) 95,74 %
27.04.2016 09:18 3,8 C 4,4 C 2,8 C 95 % 10 lf 1002,9 hPa 0,0 l/m 0 min 0 min 199 W/m 33,5 km/h (5 Bft) 97,87 %
27.04.2016 09:20 3,8 C 4,4 C 2,8 C 95 % 9 lf 1002,9 hPa 0,0 l/m 0 min 2 min 174 W/m 27,2 km/h (4 Bft) 97,87 %
27.04.2016 09:22 3,8 C 5,0 C 2,8 C 95 % 9 lf 1002,9 hPa 0,0 l/m 0 min 0 min 170 W/m 29,3 km/h (5 Bft) 95,74 %
27.04.2016 09:24 3,8 C 5,6 C 3,3 C 95 % 9 lf 1002,9 hPa 0,0 l/m 2 min 0 min 245 W/m 27,2 km/h (4 Bft) 97,83 %
27.04.2016 09:26 3,8 C 5,6 C 3,3 C 95 % 8 lf 1003,0 hPa 0,0 l/m 0 min 0 min 232 W/m 31,4 km/h (5 Bft) 93,62 %
27.04.2016 09:28 3,9 C 5,6 C 3,3 C 95 % 9 lf 1003,0 hPa 0,0 l/m 0 min 0 min 187 W/m 29,3 km/h (5 Bft) 97,87 %
27.04.2016 09:30 3,9 C 5,6 C 3,3 C 95 % 9 lf 1003,0 hPa 0,0 l/m 2 min 0 min 259 W/m 29,3 km/h (5 Bft) 93,62 %
27.04.2016 09:32 3,9 C 6,1 C 3,3 C 95 % 8 lf 1002,9 hPa 0,0 l/m 2 min 0 min 276 W/m 18,8 km/h (3 Bft) 95,74 %
27.04.2016 09:34 4,1 C 6,7 C 3,9 C 95 % 7 lf 1003,0 hPa 0,0 l/m 2 min 0 min 334 W/m 18,8 km/h (3 Bft) 97,87 %
27.04.2016 09:36 4,2 C 7,2 C 3,9 C 95 % 6 lf 1003,0 hPa 0,0 l/m 2 min 0 min 315 W/m 25,1 km/h (4 Bft) 100,00 %
27.04.2016 09:38 4,2 C 6,7 C 3,9 C 95 % 4 lf 1003,0 hPa 0,0 l/m 2 min 0 min 328 W/m 27,2 km/h (4 Bft) 93,48 %
27.04.2016 09:40 4,3 C 6,7 C 3,9 C 95 % 4 lf 1002,9 hPa 0,0 l/m 2 min 0 min 292 W/m 29,3 km/h (5 Bft) 100,00 %
27.04.2016 09:42 4,3 C 7,2 C 3,9 C 95 % 3 lf 1003,0 hPa 0,0 l/m 2 min 0 min 323 W/m 25,1 km/h (4 Bft) 97,87 %
27.04.2016 09:44 4,4 C 6,7 C 3,9 C 95 % 3 lf 1003,0 hPa 0,0 l/m 0 min 0 min 253 W/m 25,1 km/h (4 Bft) 100,00 %
27.04.2016 09:46 4,4 C 6,7 C 3,9 C 95 % 3 lf 1003,0 hPa 0,0 l/m 0 min 0 min 235 W/m 25,1 km/h (4 Bft) 95,74 %
27.04.2016 09:48 4,5 C 6,7 C 3,9 C 95 % 2 lf 1003,1 hPa 0,0 l/m 0 min 0 min 218 W/m 16,7 km/h (3 Bft) 95,65 %
27.04.2016 09:50 4,6 C 6,7 C 3,9 C 95 % 2 lf 1003,2 hPa 0,0 l/m 0 min 0 min 234 W/m 23,0 km/h (4 Bft) 95,74 %
27.04.2016 09:52 4,7 C 6,7 C 3,9 C 95 % 1 lf 1003,2 hPa 0,0 l/m 0 min 0 min 212 W/m 25,1 km/h (4 Bft) 100,00 %
27.04.2016 09:54 4,7 C 6,7 C 3,9 C 95 % 0 lf 1003,2 hPa 0,0 l/m 0 min 0 min 240 W/m 23,0 km/h (4 Bft) 97,87 %
27.04.2016 09:56 4,8 C 7,2 C 4,4 C 95 % 0 lf 1003,1 hPa 0,0 l/m 2 min 0 min 332 W/m 29,3 km/h (5 Bft) 97,87 %
27.04.2016 09:58 4,8 C 7,2 C 4,4 C 95 % 0 lf 1003,2 hPa 0,0 l/m 2 min 0 min 299 W/m 23,0 km/h (4 Bft) 97,87 %
27.04.2016 10:00 4,9 C 7,2 C 4,4 C 95 % 0 lf 1003,2 hPa 0,0 l/m 2 min 0 min 276 W/m 29,3 km/h (5 Bft) 100,00 %
27.04.2016 10:02 4,9 C 7,2 C 4,4 C 95 % 0 lf 1003,2 hPa 0,0 l/m 0 min 0 min 216 W/m 23,0 km/h (4 Bft) 95,74 %
27.04.2016 10:04 5,0 C 6,7 C 4,4 C 95 % 0 lf 1003,3 hPa 0,0 l/m 0 min 0 min 177 W/m 25,1 km/h (4 Bft) 100,00 %
27.04.2016 10:06 5,0 C 6,7 C 3,9 C 95 % 0 lf 1003,2 hPa 0,0 l/m 0 min 0 min 139 W/m 25,1 km/h (4 Bft) 93,62 %
27.04.2016 10:08 5,0 C 7,2 C 4,4 C 95 % 0 lf 1003,2 hPa 0,0 l/m 0 min 0 min 214 W/m 20,9 km/h (4 Bft) 95,74 %
27.04.2016 10:10 5,0 C 6,7 C 4,4 C 95 % 0 lf 1003,3 hPa 0,0 l/m 0 min 0 min 214 W/m 35,6 km/h (5 Bft) 97,87 %
27.04.2016 10:12 5,1 C 6,7 C 4,4 C 95 % 0 lf 1003,2 hPa 0,0 l/m 0 min 0 min 238 W/m 29,3 km/h (5 Bft) 97,83 %
27.04.2016 10:14 5,1 C 7,2 C 4,4 C 95 % 0 lf 1003,3 hPa 0,0 l/m 0 min 0 min 258 W/m 16,7 km/h (3 Bft) 97,87 %
27.04.2016 10:16 5,1 C 7,8 C 5,0 C 95 % 0 lf 1003,3 hPa 0,0 l/m 2 min 0 min 318 W/m 16,7 km/h (3 Bft) 95,74 %
27.04.2016 10:18 5,2 C 10,0 C 6,7 C 95 % 0 lf 1003,3 hPa 0,0 l/m 0 min 0 min 274 W/m 16,7 km/h (3 Bft) 97,87 %
27.04.2016 10:20 5,4 C 11,1 C 7,2 C 95 % 0 lf 1003,3 hPa 0,0 l/m 0 min 0 min 274 W/m 20,9 km/h (4 Bft) 95,74 %
27.04.2016 10:22 5,6 C 12,2 C 7,8 C 95 % 0 lf 1003,3 hPa 0,0 l/m 0 min 0 min 274 W/m 23,0 km/h (4 Bft) 95,74 %
27.04.2016 10:24 5,7 C 12,8 C 8,3 C 95 % 0 lf 1003,3 hPa 0,0 l/m 0 min 0 min 274 W/m 25,1 km/h (4 Bft) 93,48 %
27.04.2016 10:26 5,8 C 14,4 C 8,3 C 95 % 0 lf 1003,3 hPa 0,0 l/m 2 min 0 min 724 W/m 29,3 km/h (5 Bft) 97,87 %
27.04.2016 10:28 6,0 C 12,8 C 7,2 C 95 % 0 lf 1003,4 hPa 0,0 l/m 2 min 0 min 825 W/m 29,3 km/h (5 Bft) 95,74 %
27.04.2016 10:30 6,1 C 11,7 C 6,7 C 95 % 0 lf 1003,4 hPa 0,0 l/m 2 min 0 min 398 W/m 25,1 km/h (4 Bft) 97,87 %
27.04.2016 10:32 6,2 C 12,2 C 7,2 C 94 % 0 lf 1003,3 hPa 0,0 l/m 2 min 0 min 354 W/m 25,1 km/h (4 Bft) 97,87 %
27.04.2016 10:34 6,4 C 11,7 C 7,2 C 94 % 0 lf 1003,4 hPa 0,0 l/m 2 min 0 min 411 W/m 20,9 km/h (4 Bft) 95,74 %
27.04.2016 10:36 6,4 C 10,6 C 6,1 C 94 % 0 lf 1003,4 hPa 0,0 l/m 2 min 0 min 382 W/m 33,5 km/h (5 Bft) 97,83 %
27.04.2016 10:38 6,5 C 11,7 C 6,7 C 94 % 0 lf 1003,4 hPa 0,0 l/m 2 min 0 min 473 W/m 18,8 km/h (3 Bft) 100,00 %
27.04.2016 10:40 6,6 C 11,1 C 6,7 C 93 % 0 lf 1003,4 hPa 0,0 l/m 2 min 0 min 410 W/m 20,9 km/h (4 Bft) 95,74 %
27.04.2016 10:42 6,7 C 11,1 C 6,7 C 93 % 0 lf 1003,5 hPa 0,0 l/m 2 min 0 min 314 W/m 27,2 km/h (4 Bft) 100,00 %
27.04.2016 10:44 6,8 C 11,1 C 7,2 C 93 % 0 lf 1003,5 hPa 0,0 l/m 2 min 0 min 378 W/m 31,4 km/h (5 Bft) 95,74 %
27.04.2016 10:46 6,9 C 11,7 C 7,2 C 92 % 0 lf 1003,5 hPa 0,0 l/m 2 min 0 min 360 W/m 25,1 km/h (4 Bft) 97,83 %
27.04.2016 10:48 6,9 C 13,3 C 8,3 C 92 % 0 lf 1003,5 hPa 0,0 l/m 2 min 0 min 360 W/m 27,2 km/h (4 Bft) 100,00 %
27.04.2016 10:50 7,1 C 14,4 C 9,4 C 91 % 0 lf 1003,6 hPa 0,0 l/m 2 min 0 min 852 W/m 29,3 km/h (5 Bft) 100,00 %
27.04.2016 10:52 7,2 C 15,0 C 9,4 C 91 % 0 lf 1003,6 hPa 0,0 l/m 2 min 0 min 776 W/m 33,5 km/h (5 Bft) 97,87 %
27.04.2016 10:54 7,4 C 13,9 C 8,9 C 90 % 0 lf 1003,6 hPa 0,0 l/m 2 min 0 min 805 W/m 23,0 km/h (4 Bft) 93,62 %
27.04.2016 10:56 7,5 C 13,9 C 8,3 C 90 % 0 lf 1003,6 hPa 0,0 l/m 2 min 0 min 455 W/m 23,0 km/h (4 Bft) 100,00 %
27.04.2016 10:58 7,6 C 15,0 C 8,9 C 89 % 0 lf 1003,6 hPa 0,0 l/m 2 min 0 min 771 W/m 14,6 km/h (3 Bft) 100,00 %
27.04.2016 11:00 7,7 C 16,1 C 9,4 C 89 % 0 lf 1003,6 hPa 0,0 l/m 2 min 0 min 884 W/m 20,9 km/h (4 Bft) 97,83 %
27.04.2016 11:02 7,9 C 16,7 C 10,6 C 88 % 0 lf 1003,6 hPa 0,0 l/m 2 min 0 min 928 W/m 20,9 km/h (4 Bft) 93,48 %
27.04.2016 11:04 8,1 C 17,2 C 10,6 C 88 % 0 lf 1003,6 hPa 0,0 l/m 2 min 0 min 934 W/m 23,0 km/h (4 Bft) 93,62 %
27.04.2016 11:06 8,2 C 17,8 C 10,6 C 88 % 0 lf 1003,6 hPa 0,0 l/m 2 min 0 min 923 W/m 27,2 km/h (4 Bft) 97,87 %
27.04.2016 11:08 8,4 C 17,8 C 10,6 C 87 % 0 lf 1003,7 hPa 0,0 l/m 2 min 0 min 403 W/m 25,1 km/h (4 Bft) 97,87 %
27.04.2016 11:10 8,4 C 13,3 C 7,8 C 86 % 0 lf 1003,6 hPa 0,0 l/m 0 min 0 min 319 W/m 31,4 km/h (5 Bft) 95,74 %
27.04.2016 11:12 8,4 C 12,2 C 7,8 C 84 % 0 lf 1003,7 hPa 0,0 l/m 0 min 0 min 331 W/m 25,1 km/h (4 Bft) 93,62 %
27.04.2016 11:14 8,4 C 11,7 C 7,8 C 84 % 0 lf 1003,6 hPa 0,0 l/m 0 min 0 min 301 W/m 27,2 km/h (4 Bft) 93,48 %
27.04.2016 11:16 8,4 C 12,2 C 7,8 C 84 % 0 lf 1003,8 hPa 0,0 l/m 2 min 0 min 413 W/m 29,3 km/h (5 Bft) 93,62 %
27.04.2016 11:18 8,4 C 12,8 C 8,3 C 84 % 0 lf 1003,8 hPa 0,0 l/m 2 min 0 min 447 W/m 29,3 km/h (5 Bft) 91,49 %
27.04.2016 11:20 8,3 C 10,6 C 7,8 C 83 % 0 lf 1003,8 hPa 0,0 l/m 0 min 2 min 258 W/m 33,5 km/h (5 Bft) 93,62 %
27.04.2016 11:22 8,2 C 8,9 C 6,7 C 83 % 3 lf 1003,9 hPa 0,0 l/m 0 min 2 min 114 W/m 35,6 km/h (5 Bft) 95,74 %
27.04.2016 11:24 8,0 C 7,8 C 6,1 C 82 % 4 lf 1003,9 hPa 0,0 l/m 0 min 2 min 104 W/m 31,4 km/h (5 Bft) 95,74 %
27.04.2016 11:26 7,8 C 7,2 C 5,6 C 83 % 15 lf 1003,9 hPa 0,0 l/m 0 min 2 min 104 W/m 29,3 km/h (5 Bft) 95,65 %
27.04.2016 11:28 7,7 C 7,2 C 5,0 C 83 % 15 lf 1003,9 hPa 0,0 l/m 0 min 2 min 112 W/m 27,2 km/h (4 Bft) 91,49 %
27.04.2016 11:30 7,5 C 7,2 C 5,0 C 84 % 15 lf 1003,9 hPa 0,0 l/m 0 min 2 min 164 W/m 29,3 km/h (5 Bft) 95,74 %
27.04.2016 11:32 7,4 C 7,8 C 5,6 C 84 % 15 lf 1004,0 hPa 0,0 l/m 0 min 2 min 241 W/m 25,1 km/h (4 Bft) 89,36 %
27.04.2016 11:34 7,4 C 8,9 C 6,7 C 85 % 15 lf 1004,0 hPa 0,0 l/m 0 min 0 min 326 W/m 29,3 km/h (5 Bft) 93,62 %
27.04.2016 11:36 7,3 C 10,6 C 7,2 C 86 % 15 lf 1004,0 hPa 0,0 l/m 2 min 0 min 408 W/m 25,1 km/h (4 Bft) 95,74 %
27.04.2016 11:38 7,3 C 10,6 C 6,7 C 86 % 14 lf 1004,1 hPa 0,0 l/m 0 min 2 min 352 W/m 27,2 km/h (4 Bft) 93,48 %
27.04.2016 11:40 7,3 C 10,6 C 6,7 C 87 % 12 lf 1004,2 hPa 0,0 l/m 0 min 0 min 344 W/m 27,2 km/h (4 Bft) 93,62 %
27.04.2016 11:42 7,3 C 9,4 C 6,7 C 87 % 9 lf 1004,0 hPa 0,0 l/m 0 min 0 min 265 W/m 39,7 km/h (6 Bft) 93,62 %
27.04.2016 11:44 7,3 C 8,9 C 6,1 C 86 % 4 lf 1004,1 hPa 0,0 l/m 0 min 0 min 223 W/m 31,4 km/h (5 Bft) 95,74 %
27.04.2016 11:46 7,2 C 7,8 C 6,1 C 86 % 3 lf 1004,2 hPa 0,0 l/m 0 min 2 min 248 W/m 37,7 km/h (5 Bft) 93,62 %
27.04.2016 11:48 7,1 C 8,3 C 6,1 C 86 % 1 lf 1004,2 hPa 0,0 l/m 0 min 0 min 291 W/m 31,4 km/h (5 Bft) 91,49 %
27.04.2016 11:50 6,9 C 7,8 C 5,6 C 85 % 0 lf 1004,2 hPa 0,0 l/m 0 min 0 min 301 W/m 31,4 km/h (5 Bft) 89,13 %
27.04.2016 11:52 6,8 C 7,8 C 5,6 C 85 % 0 lf 1004,2 hPa 0,0 l/m 0 min 0 min 311 W/m 29,3 km/h (5 Bft) 91,49 %
27.04.2016 11:54 6,8 C 8,3 C 6,1 C 85 % 0 lf 1004,2 hPa 0,0 l/m 0 min 0 min 326 W/m 29,3 km/h (5 Bft) 93,62 %
27.04.2016 11:56 6,7 C 8,9 C 6,1 C 85 % 0 lf 1004,3 hPa 0,0 l/m 0 min 0 min 293 W/m 18,8 km/h (3 Bft) 91,49 %
27.04.2016 11:58 6,7 C 8,3 C 6,1 C 85 % 0 lf 1004,3 hPa 0,0 l/m 0 min 0 min 261 W/m 25,1 km/h (4 Bft) 91,49 %
27.04.2016 12:00 6,7 C 8,3 C 6,1 C 86 % 0 lf 1004,3 hPa 0,0 l/m 0 min 0 min 283 W/m 20,9 km/h (4 Bft) 93,48 %
27.04.2016 12:02 6,7 C 8,9 C 6,1 C 86 % 0 lf 1004,3 hPa 0,0 l/m 0 min 0 min 297 W/m 12,6 km/h (3 Bft) 93,62 %
27.04.2016 12:04 6,7 C 8,9 C 6,7 C 86 % 0 lf 1004,3 hPa 0,0 l/m 0 min 0 min 293 W/m 14,6 km/h (3 Bft) 95,83 %
27.04.2016 12:06 6,7 C 8,9 C 6,7 C 86 % 0 lf 1004,3 hPa 0,0 l/m 0 min 0 min 284 W/m 25,1 km/h (4 Bft) 95,74 %
27.04.2016 12:08 6,7 C 8,9 C 6,7 C 86 % 0 lf 1004,3 hPa 0,0 l/m 0 min 0 min 283 W/m 14,6 km/h (3 Bft) 93,62 %
27.04.2016 12:10 6,7 C 9,4 C 6,7 C 86 % 0 lf 1004,3 hPa 0,0 l/m 0 min 0 min 286 W/m 16,7 km/h (3 Bft) 91,49 %
27.04.2016 12:12 6,8 C 8,9 C 6,7 C 86 % 0 lf 1004,3 hPa 0,0 l/m 0 min 0 min 251 W/m 23,0 km/h (4 Bft) 97,83 %
27.04.2016 12:14 6,8 C 8,3 C 6,7 C 86 % 4 lf 1004,4 hPa 0,0 l/m 0 min 2 min 201 W/m 25,1 km/h (4 Bft) 91,49 %
27.04.2016 12:16 6,8 C 8,3 C 6,1 C 86 % 11 lf 1004,5 hPa 0,0 l/m 0 min 2 min 180 W/m 27,2 km/h (4 Bft) 91,49 %
27.04.2016 12:18 6,8 C 8,3 C 5,6 C 86 % 10 lf 1004,6 hPa 0,0 l/m 0 min 0 min 172 W/m 14,6 km/h (3 Bft) 93,62 %
27.04.2016 12:20 6,7 C 7,8 C 5,6 C 86 % 8 lf 1004,6 hPa 0,0 l/m 0 min 0 min 141 W/m 23,0 km/h (4 Bft) 95,74 %
27.04.2016 12:22 6,7 C 7,2 C 5,6 C 86 % 14 lf 1004,6 hPa 0,0 l/m 0 min 2 min 135 W/m 16,7 km/h (3 Bft) 95,74 %
27.04.2016 12:24 6,7 C 6,7 C 5,0 C 86 % 15 lf 1004,6 hPa 0,0 l/m 0 min 2 min 145 W/m 33,5 km/h (5 Bft) 91,30 %
27.04.2016 12:26 6,7 C 6,7 C 5,0 C 86 % 15 lf 1004,7 hPa 0,2 l/m 0 min 2 min 155 W/m 25,1 km/h (4 Bft) 91,49 %
27.04.2016 12:28 6,6 C 6,7 C 5,0 C 86 % 15 lf 1004,7 hPa 0,0 l/m 0 min 2 min 155 W/m 23,0 km/h (4 Bft) 95,74 %
27.04.2016 12:30 6,5 C 6,7 C 5,0 C 87 % 15 lf 1004,7 hPa 0,0 l/m 0 min 0 min 166 W/m 35,6 km/h (5 Bft) 93,62 %
27.04.2016 12:32 6,4 C 6,7 C 4,4 C 87 % 14 lf 1004,7 hPa 0,0 l/m 0 min 0 min 188 W/m 39,7 km/h (6 Bft) 95,74 %
27.04.2016 12:34 6,4 C 7,2 C 5,0 C 87 % 14 lf 1004,7 hPa 0,0 l/m 0 min 0 min 212 W/m 25,1 km/h (4 Bft) 95,74 %
27.04.2016 12:36 6,3 C 7,8 C 5,0 C 87 % 13 lf 1004,8 hPa 0,0 l/m 0 min 0 min 241 W/m 20,9 km/h (4 Bft) 97,83 %
27.04.2016 12:38 6,3 C 10,6 C 6,7 C 87 % 13 lf 1004,8 hPa 0,0 l/m 0 min 0 min 343 W/m 16,7 km/h (3 Bft) 95,74 %
27.04.2016 12:40 6,4 C 12,2 C 7,8 C 88 % 12 lf 1004,8 hPa 0,0 l/m 2 min 0 min 611 W/m 16,7 km/h (3 Bft) 97,87 %
27.04.2016 12:42 6,4 C 12,2 C 7,8 C 88 % 10 lf 1004,8 hPa 0,0 l/m 2 min 0 min 549 W/m 18,8 km/h (3 Bft) 91,49 %
27.04.2016 12:44 6,6 C 12,2 C 8,3 C 88 % 6 lf 1004,8 hPa 0,0 l/m 2 min 0 min 498 W/m 23,0 km/h (4 Bft) 95,74 %
27.04.2016 12:46 6,7 C 12,8 C 9,4 C 88 % 3 lf 1004,8 hPa 0,0 l/m 2 min 0 min 626 W/m 12,6 km/h (3 Bft) 97,87 %
27.04.2016 12:48 6,8 C 14,4 C 10,6 C 89 % 1 lf 1004,8 hPa 0,0 l/m 2 min 0 min 770 W/m 23,0 km/h (4 Bft) 100,00 %
27.04.2016 12:50 7,1 C 16,1 C 11,7 C 89 % 0 lf 1004,8 hPa 0,0 l/m 2 min 0 min 1067 W/m 27,2 km/h (4 Bft) 100,00 %
27.04.2016 12:52 7,2 C 15,6 C 11,7 C 89 % 0 lf 1004,7 hPa 0,0 l/m 2 min 0 min 960 W/m 20,9 km/h (4 Bft) 100,00 %
27.04.2016 12:54 7,4 C 14,4 C 11,1 C 88 % 0 lf 1004,8 hPa 0,0 l/m 2 min 0 min 835 W/m 18,8 km/h (3 Bft) 97,87 %
27.04.2016 12:56 7,6 C 14,4 C 10,6 C 88 % 0 lf 1004,8 hPa 0,0 l/m 2 min 0 min 677 W/m 20,9 km/h (4 Bft) 97,87 %
27.04.2016 12:58 7,8 C 15,0 C 10,6 C 88 % 0 lf 1004,9 hPa 0,0 l/m 2 min 0 min 688 W/m 23,0 km/h (4 Bft) 95,65 %
27.04.2016 13:00 7,9 C 15,6 C 10,6 C 88 % 0 lf 1004,9 hPa 0,0 l/m 2 min 0 min 816 W/m 20,9 km/h (4 Bft) 100,00 %
27.04.2016 13:02 8,1 C 14,4 C 10,6 C 87 % 0 lf 1004,9 hPa 0,0 l/m 2 min 0 min 715 W/m 25,1 km/h (4 Bft) 100,00 %
27.04.2016 13:04 8,2 C 12,8 C 10,0 C 86 % 0 lf 1004,9 hPa 0,0 l/m 2 min 0 min 440 W/m 23,0 km/h (4 Bft) 100,00 %
27.04.2016 13:06 8,3 C 12,2 C 9,4 C 86 % 0 lf 1004,8 hPa 0,0 l/m 2 min 0 min 387 W/m 18,8 km/h (3 Bft) 100,00 %
27.04.2016 13:08 8,4 C 11,7 C 9,4 C 85 % 0 lf 1004,9 hPa 0,0 l/m 0 min 0 min 379 W/m 25,1 km/h (4 Bft) 100,00 %
27.04.2016 13:10 8,4 C 11,7 C 8,9 C 85 % 0 lf 1004,8 hPa 0,0 l/m 0 min 0 min 381 W/m 20,9 km/h (4 Bft) 97,83 %
27.04.2016 13:12 8,5 C 11,7 C 8,9 C 84 % 0 lf 1004,9 hPa 0,0 l/m 2 min 0 min 393 W/m 20,9 km/h (4 Bft) 100,00 %
27.04.2016 13:14 8,6 C 12,2 C 9,4 C 84 % 0 lf 1004,8 hPa 0,0 l/m 2 min 0 min 424 W/m 18,8 km/h (3 Bft) 97,87 %
27.04.2016 13:16 8,7 C 11,7 C 8,9 C 84 % 0 lf 1004,8 hPa 0,0 l/m 0 min 0 min 339 W/m 18,8 km/h (3 Bft) 100,00 %
27.04.2016 13:18 8,7 C 11,1 C 8,9 C 84 % 0 lf 1004,9 hPa 0,0 l/m 0 min 0 min 260 W/m 33,5 km/h (5 Bft) 97,87 %
27.04.2016 13:20 8,6 C 10,0 C 8,3 C 83 % 0 lf 1004,9 hPa 0,0 l/m 0 min 0 min 193 W/m 33,5 km/h (5 Bft) 100,00 %
27.04.2016 13:22 8,6 C 9,4 C 7,8 C 82 % 0 lf 1004,9 hPa 0,0 l/m 0 min 0 min 164 W/m 18,8 km/h (3 Bft) 97,83 %
27.04.2016 13:24 8,5 C 9,4 C 7,8 C 82 % 0 lf 1004,9 hPa 0,0 l/m 0 min 0 min 183 W/m 23,0 km/h (4 Bft) 95,74 %
27.04.2016 13:26 8,4 C 11,7 C 7,8 C 82 % 0 lf 1004,9 hPa 0,0 l/m 0 min 0 min 276 W/m 27,2 km/h (4 Bft) 100,00 %
27.04.2016 13:28 8,5 C 14,4 C 8,9 C 82 % 0 lf 1004,9 hPa 0,0 l/m 2 min 0 min 558 W/m 23,0 km/h (4 Bft) 100,00 %
27.04.2016 13:30 8,6 C 16,1 C 9,4 C 82 % 0 lf 1004,9 hPa 0,0 l/m 2 min 0 min 941 W/m 27,2 km/h (4 Bft) 97,87 %
27.04.2016 13:32 8,8 C 16,7 C 10,0 C 82 % 0 lf 1005,0 hPa 0,0 l/m 2 min 0 min 938 W/m 27,2 km/h (4 Bft) 100,00 %
27.04.2016 13:34 8,9 C 17,2 C 10,0 C 82 % 0 lf 1005,0 hPa 0,0 l/m 2 min 0 min 1011 W/m 31,4 km/h (5 Bft) 97,83 %
27.04.2016 13:36 9,1 C 16,7 C 10,0 C 81 % 0 lf 1005,0 hPa 0,0 l/m 0 min 0 min 383 W/m 33,5 km/h (5 Bft) 100,00 %
27.04.2016 13:38 9,3 C 16,7 C 10,0 C 81 % 0 lf 1005,0 hPa 0,0 l/m 0 min 0 min 383 W/m 23,0 km/h (4 Bft) 100,00 %
27.04.2016 13:40 9,4 C 17,8 C 10,6 C 81 % 0 lf 1005,1 hPa 0,0 l/m 2 min 0 min 1030 W/m 31,4 km/h (5 Bft) 93,62 %
27.04.2016 13:42 9,7 C 17,2 C 10,0 C 80 % 0 lf 1005,1 hPa 0,0 l/m 2 min 0 min 964 W/m 39,7 km/h (6 Bft) 95,74 %
27.04.2016 13:44 9,7 C 16,7 C 10,0 C 78 % 0 lf 1005,1 hPa 0,0 l/m 2 min 0 min 813 W/m 31,4 km/h (5 Bft) 100,00 %
27.04.2016 13:46 9,8 C 17,2 C 10,0 C 78 % 0 lf 1005,1 hPa 0,0 l/m 2 min 0 min 821 W/m 33,5 km/h (5 Bft) 97,83 %
27.04.2016 13:48 9,9 C 16,7 C 10,0 C 77 % 0 lf 1005,1 hPa 0,0 l/m 2 min 0 min 1046 W/m 41,8 km/h (6 Bft) 97,87 %
27.04.2016 13:50 9,9 C 17,2 C 10,0 C 75 % 0 lf 1005,1 hPa 0,0 l/m 2 min 0 min 837 W/m 31,4 km/h (5 Bft) 97,87 %
27.04.2016 13:52 10,0 C 15,0 C 9,4 C 75 % 0 lf 1005,1 hPa 0,0 l/m 2 min 0 min 718 W/m 31,4 km/h (5 Bft) 97,87 %
27.04.2016 13:54 10,0 C 15,0 C 9,4 C 75 % 0 lf 1005,1 hPa 0,0 l/m 2 min 0 min 590 W/m 31,4 km/h (5 Bft) 97,87 %
27.04.2016 13:56 9,9 C 13,9 C 9,4 C 75 % 0 lf 1005,1 hPa 0,0 l/m 2 min 0 min 556 W/m 27,2 km/h (4 Bft) 95,74 %
27.04.2016 13:58 9,9 C 13,9 C 9,4 C 75 % 0 lf 1005,1 hPa 0,0 l/m 2 min 0 min 479 W/m 27,2 km/h (4 Bft) 95,65 %
27.04.2016 14:00 9,9 C 12,8 C 8,9 C 74 % 0 lf 1005,1 hPa 0,0 l/m 0 min 0 min 371 W/m 33,5 km/h (5 Bft) 97,87 %
27.04.2016 14:02 9,8 C 11,7 C 8,9 C 74 % 0 lf 1005,1 hPa 0,0 l/m 0 min 0 min 332 W/m 20,9 km/h (4 Bft) 95,74 %
27.04.2016 14:04 9,8 C 12,2 C 8,9 C 75 % 0 lf 1005,1 hPa 0,0 l/m 0 min 0 min 328 W/m 20,9 km/h (4 Bft) 95,74 %
27.04.2016 14:06 9,7 C 12,2 C 9,4 C 76 % 0 lf 1005,2 hPa 0,0 l/m 0 min 0 min 337 W/m 20,9 km/h (4 Bft) 93,62 %
27.04.2016 14:08 9,7 C 12,2 C 9,4 C 76 % 0 lf 1005,2 hPa 0,0 l/m 0 min 0 min 356 W/m 20,9 km/h (4 Bft) 95,74 %
27.04.2016 14:10 9,6 C 11,7 C 9,4 C 76 % 0 lf 1005,2 hPa 0,0 l/m 0 min 0 min 321 W/m 33,5 km/h (5 Bft) 97,83 %
27.04.2016 14:12 9,5 C 11,1 C 8,9 C 76 % 0 lf 1005,3 hPa 0,0 l/m 0 min 0 min 310 W/m 31,4 km/h (5 Bft) 97,87 %
27.04.2016 14:14 9,4 C 10,6 C 8,9 C 75 % 0 lf 1005,5 hPa 0,0 l/m 0 min 0 min 315 W/m 31,4 km/h (5 Bft) 95,74 %
27.04.2016 14:16 9,3 C 10,6 C 8,9 C 75 % 0 lf 1005,4 hPa 0,0 l/m 0 min 0 min 309 W/m 31,4 km/h (5 Bft) 95,74 %
27.04.2016 14:18 9,2 C 10,6 C 8,3 C 76 % 0 lf 1005,3 hPa 0,0 l/m 0 min 0 min 299 W/m 29,3 km/h (5 Bft) 91,49 %
27.04.2016 14:20 9,1 C 10,0 C 8,3 C 75 % 0 lf 1005,4 hPa 0,0 l/m 0 min 0 min 299 W/m 29,3 km/h (5 Bft) 93,62 %
27.04.2016 14:22 8,9 C 10,6 C 8,3 C 76 % 0 lf 1005,4 hPa 0,0 l/m 0 min 0 min 315 W/m 27,2 km/h (4 Bft) 91,30 %
27.04.2016 14:24 8,8 C 10,0 C 8,3 C 76 % 0 lf 1005,5 hPa 0,0 l/m 0 min 0 min 354 W/m 25,1 km/h (4 Bft) 93,62 %
27.04.2016 14:26 8,8 C 11,7 C 8,3 C 76 % 0 lf 1005,5 hPa 0,0 l/m 2 min 0 min 491 W/m 29,3 km/h (5 Bft) 93,62 %
27.04.2016 14:28 8,8 C 13,3 C 8,9 C 77 % 0 lf 1005,5 hPa 0,0 l/m 2 min 0 min 663 W/m 25,1 km/h (4 Bft) 95,74 %
27.04.2016 14:30 8,9 C 15,6 C 9,4 C 77 % 0 lf 1005,5 hPa 0,0 l/m 2 min 0 min 835 W/m 31,4 km/h (5 Bft) 93,62 %
27.04.2016 14:32 9,1 C 16,7 C 9,4 C 78 % 0 lf 1005,6 hPa 0,0 l/m 2 min 0 min 821 W/m 23,0 km/h (4 Bft) 91,30 %
27.04.2016 14:34 9,2 C 16,7 C 10,0 C 78 % 0 lf 1005,6 hPa 0,0 l/m 2 min 0 min 858 W/m 25,1 km/h (4 Bft) 93,62 %
27.04.2016 14:36 9,4 C 16,7 C 10,0 C 78 % 0 lf 1005,6 hPa 0,0 l/m 2 min 0 min 803 W/m 25,1 km/h (4 Bft) 91,49 %
27.04.2016 14:38 9,6 C 16,7 C 10,0 C 78 % 0 lf 1005,6 hPa 0,0 l/m 2 min 0 min 844 W/m 35,6 km/h (5 Bft) 93,62 %
27.04.2016 14:40 9,7 C 15,0 C 9,4 C 77 % 0 lf 1005,8 hPa 0,0 l/m 2 min 0 min 818 W/m 35,6 km/h (5 Bft) 89,36 %
27.04.2016 14:42 9,7 C 12,8 C 9,4 C 77 % 0 lf 1005,9 hPa 0,0 l/m 2 min 0 min 453 W/m 27,2 km/h (4 Bft) 93,62 %
27.04.2016 14:44 9,6 C 11,7 C 8,9 C 76 % 0 lf 1006,0 hPa 0,0 l/m 0 min 0 min 261 W/m 25,1 km/h (4 Bft) 86,96 %
27.04.2016 14:46 9,5 C 11,1 C 8,3 C 76 % 0 lf 1006,0 hPa 0,0 l/m 0 min 0 min 235 W/m 31,4 km/h (5 Bft) 91,49 %
27.04.2016 14:48 9,4 C 10,6 C 7,8 C 75 % 0 lf 1006,0 hPa 0,0 l/m 0 min 0 min 238 W/m 35,6 km/h (5 Bft) 93,62 %
27.04.2016 14:50 9,2 C 10,6 C 7,8 C 76 % 0 lf 1006,0 hPa 0,0 l/m 0 min 0 min 293 W/m 31,4 km/h (5 Bft) 91,49 %
27.04.2016 14:52 9,1 C 11,1 C 7,8 C 76 % 0 lf 1006,0 hPa 0,0 l/m 2 min 0 min 375 W/m 35,6 km/h (5 Bft) 93,62 %
27.04.2016 14:54 8,9 C 11,1 C 7,8 C 76 % 0 lf 1006,0 hPa 0,0 l/m 2 min 0 min 487 W/m 29,3 km/h (5 Bft) 91,49 %
27.04.2016 14:56 8,9 C 11,1 C 7,8 C 77 % 0 lf 1006,1 hPa 0,0 l/m 2 min 0 min 407 W/m 29,3 km/h (5 Bft) 93,48 %
27.04.2016 14:58 8,8 C 10,6 C 7,8 C 77 % 0 lf 1006,1 hPa 0,0 l/m 0 min 0 min 249 W/m 20,9 km/h (4 Bft) 91,49 %
27.04.2016 15:00 8,8 C 10,0 C 7,8 C 77 % 0 lf 1006,1 hPa 0,0 l/m 0 min 0 min 229 W/m 27,2 km/h (4 Bft) 91,49 %
27.04.2016 15:02 8,7 C 10,6 C 7,8 C 78 % 0 lf 1006,0 hPa 0,0 l/m 0 min 0 min 213 W/m 20,9 km/h (4 Bft) 87,23 %
27.04.2016 15:04 8,7 C 10,0 C 7,8 C 78 % 0 lf 1006,0 hPa 0,0 l/m 0 min 0 min 200 W/m 20,9 km/h (4 Bft) 93,62 %
27.04.2016 15:06 8,7 C 9,4 C 7,8 C 78 % 0 lf 1006,0 hPa 0,0 l/m 0 min 0 min 182 W/m 20,9 km/h (4 Bft) 87,23 %
27.04.2016 15:08 8,6 C 9,4 C 7,8 C 78 % 0 lf 1006,0 hPa 0,0 l/m 0 min 0 min 153 W/m 25,1 km/h (4 Bft) 95,65 %
27.04.2016 15:10 8,6 C 9,4 C 7,8 C 78 % 0 lf 1006,1 hPa 0,0 l/m 0 min 0 min 142 W/m 16,7 km/h (3 Bft) 95,74 %
27.04.2016 15:12 8,5 C 9,4 C 7,8 C 78 % 0 lf 1006,1 hPa 0,0 l/m 0 min 0 min 137 W/m 20,9 km/h (4 Bft) 97,87 %
27.04.2016 15:14 8,4 C 8,9 C 7,2 C 78 % 0 lf 1006,1 hPa 0,0 l/m 0 min 0 min 90 W/m 27,2 km/h (4 Bft) 95,74 %
27.04.2016 15:16 8,3 C 8,3 C 7,2 C 78 % 0 lf 1006,2 hPa 0,0 l/m 0 min 0 min 79 W/m 54,4 km/h (7 Bft) 95,74 %
27.04.2016 15:18 8,3 C 8,3 C 6,7 C 78 % 0 lf 1006,4 hPa 0,0 l/m 0 min 0 min 127 W/m 37,7 km/h (5 Bft) 95,74 %
27.04.2016 15:20 8,1 C 8,3 C 6,7 C 78 % 0 lf 1006,4 hPa 0,0 l/m 0 min 0 min 141 W/m 31,4 km/h (5 Bft) 93,48 %
27.04.2016 15:22 8,0 C 7,8 C 6,7 C 78 % 0 lf 1006,3 hPa 0,0 l/m 0 min 0 min 150 W/m 29,3 km/h (5 Bft) 100,00 %
27.04.2016 15:24 7,9 C 7,8 C 6,7 C 78 % 1 lf 1006,3 hPa 0,0 l/m 0 min 2 min 150 W/m 29,3 km/h (5 Bft) 100,00 %
27.04.2016 15:26 7,7 C 7,2 C 6,1 C 79 % 3 lf 1006,4 hPa 0,0 l/m 0 min 2 min 138 W/m 35,6 km/h (5 Bft) 95,74 %
27.04.2016 15:28 7,6 C 6,7 C 5,6 C 80 % 15 lf 1006,5 hPa 0,0 l/m 0 min 2 min 120 W/m 37,7 km/h (5 Bft) 95,74 %
27.04.2016 15:30 7,4 C 6,7 C 5,0 C 81 % 15 lf 1006,5 hPa 0,0 l/m 0 min 2 min 101 W/m 25,1 km/h (4 Bft) 97,87 %
27.04.2016 15:32 7,3 C 6,1 C 5,0 C 82 % 15 lf 1006,5 hPa 0,0 l/m 0 min 2 min 81 W/m 39,7 km/h (6 Bft) 97,83 %
27.04.2016 15:34 7,1 C 6,1 C 4,4 C 82 % 15 lf 1006,5 hPa 0,0 l/m 0 min 2 min 57 W/m 41,8 km/h (6 Bft) 95,74 %
27.04.2016 15:36 6,9 C 5,6 C 4,4 C 82 % 15 lf 1006,7 hPa 0,0 l/m 0 min 2 min 32 W/m 39,7 km/h (6 Bft) 100,00 %
27.04.2016 15:38 6,7 C 5,0 C 3,3 C 83 % 15 lf 1006,7 hPa 0,0 l/m 0 min 2 min 16 W/m 39,7 km/h (6 Bft) 100,00 %
27.04.2016 15:40 6,6 C 4,4 C 2,2 C 83 % 15 lf 1006,8 hPa 0,0 l/m 0 min 2 min 15 W/m 23,0 km/h (4 Bft) 100,00 %
27.04.2016 15:42 6,3 C 3,9 C 1,7 C 83 % 15 lf 1006,7 hPa 0,2 l/m 0 min 2 min 38 W/m 18,8 km/h (3 Bft) 100,00 %
27.04.2016 15:44 6,2 C 3,9 C 2,2 C 83 % 15 lf 1006,6 hPa 0,0 l/m 0 min 2 min 71 W/m 12,6 km/h (3 Bft) 100,00 %
27.04.2016 15:46 6,1 C 4,4 C 2,2 C 84 % 15 lf 1006,6 hPa 0,0 l/m 0 min 2 min 92 W/m 20,9 km/h (4 Bft) 100,00 %
27.04.2016 15:48 5,9 C 4,4 C 2,8 C 84 % 15 lf 1006,6 hPa 0,0 l/m 0 min 2 min 117 W/m 20,9 km/h (4 Bft) 97,87 %
27.04.2016 15:50 5,9 C 5,0 C 2,8 C 85 % 15 lf 1006,7 hPa 0,0 l/m 0 min 0 min 109 W/m 18,8 km/h (3 Bft) 97,87 %
27.04.2016 15:52 5,8 C 5,0 C 2,8 C 85 % 15 lf 1006,7 hPa 0,2 l/m 0 min 0 min 99 W/m 12,6 km/h (3 Bft) 97,87 %
27.04.2016 15:54 5,8 C 5,6 C 3,3 C 85 % 15 lf 1006,7 hPa 0,0 l/m 0 min 0 min 115 W/m 14,6 km/h (3 Bft) 97,83 %
27.04.2016 15:56 5,7 C 5,6 C 3,3 C 86 % 15 lf 1006,7 hPa 0,0 l/m 0 min 0 min 135 W/m 12,6 km/h (3 Bft) 100,00 %
27.04.2016 15:58 5,7 C 5,6 C 3,9 C 86 % 15 lf 1006,6 hPa 0,0 l/m 0 min 2 min 148 W/m 12,6 km/h (3 Bft) 97,87 %
27.04.2016 16:00 5,7 C 6,1 C 3,9 C 87 % 15 lf 1006,6 hPa 0,0 l/m 0 min 0 min 132 W/m 12,6 km/h (3 Bft) 97,87 %
27.04.2016 16:02 5,7 C 6,1 C 3,9 C 87 % 15 lf 1006,6 hPa 0,2 l/m 0 min 2 min 139 W/m 10,5 km/h (2 Bft) 100,00 %
27.04.2016 16:04 5,7 C 6,7 C 3,9 C 88 % 15 lf 1006,6 hPa 0,0 l/m 0 min 0 min 135 W/m 8,4 km/h (2 Bft) 95,74 %
27.04.2016 16:06 5,7 C 6,7 C 4,4 C 88 % 15 lf 1006,6 hPa 0,0 l/m 0 min 0 min 91 W/m 8,4 km/h (2 Bft) 97,83 %
27.04.2016 16:08 5,7 C 6,7 C 4,4 C 88 % 15 lf 1006,6 hPa 0,0 l/m 0 min 2 min 63 W/m 8,4 km/h (2 Bft) 100,00 %
27.04.2016 16:10 5,7 C 6,1 C 4,4 C 89 % 15 lf 1006,6 hPa 0,0 l/m 0 min 2 min 81 W/m 16,7 km/h (3 Bft) 100,00 %
27.04.2016 16:12 5,8 C 6,1 C 4,4 C 89 % 15 lf 1006,7 hPa 0,0 l/m 0 min 2 min 92 W/m 25,1 km/h (4 Bft) 97,87 %
27.04.2016 16:14 5,8 C 5,6 C 3,9 C 89 % 15 lf 1006,9 hPa 0,2 l/m 0 min 2 min 65 W/m 31,4 km/h (5 Bft) 97,87 %
27.04.2016 16:16 5,8 C 5,0 C 3,3 C 89 % 15 lf 1006,8 hPa 0,0 l/m 0 min 2 min 101 W/m 27,2 km/h (4 Bft) 97,87 %
27.04.2016 16:18 5,7 C 5,0 C 3,3 C 89 % 15 lf 1006,9 hPa 0,2 l/m 0 min 2 min 129 W/m 16,7 km/h (3 Bft) 97,83 %
27.04.2016 16:20 5,7 C 6,1 C 4,4 C 89 % 15 lf 1006,9 hPa 0,0 l/m 0 min 2 min 244 W/m 14,6 km/h (3 Bft) 100,00 %
27.04.2016 16:22 5,7 C 8,9 C 5,6 C 90 % 15 lf 1007,0 hPa 0,2 l/m 2 min 0 min 582 W/m 12,6 km/h (3 Bft) 100,00 %
27.04.2016 16:24 5,8 C 9,4 C 6,1 C 90 % 15 lf 1007,0 hPa 0,0 l/m 2 min 0 min 459 W/m 10,5 km/h (2 Bft) 100,00 %
27.04.2016 16:26 6,0 C 9,4 C 6,1 C 91 % 15 lf 1007,0 hPa 0,0 l/m 2 min 0 min 375 W/m 12,6 km/h (3 Bft) 97,87 %
27.04.2016 16:28 6,2 C 9,4 C 6,1 C 91 % 15 lf 1006,9 hPa 0,2 l/m 0 min 0 min 284 W/m 18,8 km/h (3 Bft) 100,00 %
27.04.2016 16:30 6,3 C 8,9 C 6,1 C 91 % 15 lf 1006,9 hPa 0,0 l/m 0 min 0 min 249 W/m 8,4 km/h (2 Bft) 97,83 %
27.04.2016 16:32 6,4 C 8,3 C 6,1 C 92 % 15 lf 1007,0 hPa 0,0 l/m 0 min 0 min 188 W/m 16,7 km/h (3 Bft) 95,74 %
27.04.2016 16:34 6,5 C 7,8 C 5,6 C 92 % 15 lf 1006,9 hPa 0,0 l/m 0 min 0 min 162 W/m 25,1 km/h (4 Bft) 95,74 %
27.04.2016 16:36 6,6 C 7,2 C 5,6 C 92 % 15 lf 1007,0 hPa 0,0 l/m 0 min 0 min 133 W/m 16,7 km/h (3 Bft) 100,00 %
27.04.2016 16:38 6,6 C 7,2 C 5,6 C 92 % 15 lf 1007,0 hPa 0,2 l/m 0 min 2 min 113 W/m 23,0 km/h (4 Bft) 93,62 %
27.04.2016 16:40 6,6 C 6,7 C 5,6 C 92 % 15 lf 1006,9 hPa 0,0 l/m 0 min 2 min 107 W/m 20,9 km/h (4 Bft) 95,74 %
27.04.2016 16:42 6,6 C 6,7 C 5,6 C 92 % 15 lf 1006,9 hPa 0,0 l/m 0 min 2 min 135 W/m 20,9 km/h (4 Bft) 93,48 %
27.04.2016 16:44 6,6 C 7,2 C 5,6 C 92 % 15 lf 1006,9 hPa 0,0 l/m 0 min 2 min 225 W/m 23,0 km/h (4 Bft) 89,36 %
27.04.2016 16:46 6,6 C 7,8 C 5,6 C 92 % 15 lf 1006,9 hPa 0,0 l/m 0 min 0 min 250 W/m 23,0 km/h (4 Bft) 95,74 %
27.04.2016 16:48 6,7 C 8,3 C 6,1 C 92 % 15 lf 1006,9 hPa 0,0 l/m 0 min 0 min 279 W/m 20,9 km/h (4 Bft) 95,74 %
27.04.2016 16:50 6,7 C 8,3 C 6,1 C 92 % 15 lf 1006,9 hPa 0,2 l/m 0 min 0 min 243 W/m 20,9 km/h (4 Bft) 93,62 %
27.04.2016 16:52 6,8 C 7,8 C 5,6 C 92 % 15 lf 1006,9 hPa 0,0 l/m 0 min 0 min 214 W/m 29,3 km/h (5 Bft) 93,48 %
27.04.2016 16:54 6,8 C 7,8 C 5,6 C 92 % 15 lf 1007,0 hPa 0,0 l/m 0 min 0 min 216 W/m 16,7 km/h (3 Bft) 93,62 %
27.04.2016 16:56 6,8 C 7,8 C 5,6 C 92 % 15 lf 1007,0 hPa 0,0 l/m 0 min 0 min 233 W/m 23,0 km/h (4 Bft) 91,49 %
27.04.2016 16:58 6,9 C 7,8 C 5,6 C 92 % 15 lf 1007,0 hPa 0,0 l/m 0 min 0 min 200 W/m 20,9 km/h (4 Bft) 93,62 %
27.04.2016 17:00 6,8 C 7,2 C 5,6 C 92 % 15 lf 1007,0 hPa 0,0 l/m 0 min 0 min 192 W/m 20,9 km/h (4 Bft) 91,49 %
27.04.2016 17:02 6,8 C 7,8 C 5,6 C 92 % 15 lf 1007,1 hPa 0,0 l/m 0 min 0 min 182 W/m 16,7 km/h (3 Bft) 95,74 %
27.04.2016 17:04 6,9 C 7,8 C 5,6 C 92 % 15 lf 1007,1 hPa 0,0 l/m 0 min 0 min 177 W/m 16,7 km/h (3 Bft) 95,65 %
27.04.2016 17:06 6,8 C 7,2 C 5,6 C 92 % 15 lf 1007,2 hPa 0,2 l/m 0 min 0 min 176 W/m 23,0 km/h (4 Bft) 93,62 %
27.04.2016 17:08 6,8 C 7,2 C 5,6 C 91 % 15 lf 1007,1 hPa 0,0 l/m 0 min 0 min 176 W/m 18,8 km/h (3 Bft) 93,62 %
27.04.2016 17:10 6,8 C 7,2 C 5,6 C 91 % 15 lf 1007,1 hPa 0,0 l/m 0 min 0 min 180 W/m 18,8 km/h (3 Bft) 97,87 %
27.04.2016 17:12 6,8 C 7,2 C 5,0 C 91 % 15 lf 1007,2 hPa 0,0 l/m 0 min 0 min 195 W/m 20,9 km/h (4 Bft) 97,87 %
27.04.2016 17:14 6,8 C 7,2 C 5,6 C 91 % 15 lf 1007,2 hPa 0,0 l/m 0 min 0 min 224 W/m 23,0 km/h (4 Bft) 91,49 %
27.04.2016 17:16 6,8 C 7,8 C 5,0 C 90 % 14 lf 1007,1 hPa 0,0 l/m 2 min 0 min 287 W/m 23,0 km/h (4 Bft) 95,65 %
27.04.2016 17:18 6,8 C 8,3 C 5,6 C 90 % 14 lf 1007,2 hPa 0,0 l/m 2 min 0 min 274 W/m 10,5 km/h (2 Bft) 95,74 %
27.04.2016 17:20 6,9 C 8,3 C 6,1 C 90 % 12 lf 1007,3 hPa 0,0 l/m 0 min 0 min 251 W/m 12,6 km/h (3 Bft) 95,74 %
27.04.2016 17:22 7,0 C 8,9 C 6,1 C 90 % 11 lf 1007,3 hPa 0,0 l/m 0 min 0 min 251 W/m 14,6 km/h (3 Bft) 97,87 %
27.04.2016 17:24 7,1 C 8,9 C 6,1 C 90 % 9 lf 1007,2 hPa 0,0 l/m 2 min 0 min 266 W/m 14,6 km/h (3 Bft) 97,87 %
27.04.2016 17:26 7,2 C 8,9 C 6,1 C 90 % 7 lf 1007,4 hPa 0,0 l/m 2 min 0 min 275 W/m 12,6 km/h (3 Bft) 95,74 %
27.04.2016 17:28 7,2 C 9,4 C 6,7 C 90 % 4 lf 1007,3 hPa 0,0 l/m 2 min 0 min 294 W/m 20,9 km/h (4 Bft) 95,65 %
27.04.2016 17:30 7,3 C 9,4 C 6,7 C 90 % 3 lf 1007,3 hPa 0,0 l/m 2 min 0 min 288 W/m 20,9 km/h (4 Bft) 97,87 %
27.04.2016 17:32 7,4 C 9,4 C 6,7 C 90 % 3 lf 1007,3 hPa 0,0 l/m 0 min 0 min 234 W/m 25,1 km/h (4 Bft) 95,74 %
27.04.2016 17:34 7,5 C 8,9 C 6,1 C 90 % 2 lf 1007,3 hPa 0,0 l/m 0 min 0 min 202 W/m 18,8 km/h (3 Bft) 100,00 %
27.04.2016 17:38 7,6 C 8,3 C 5,6 C 89 % 1 lf 1007,2 hPa 0,0 l/m 0 min 0 min 151 W/m 27,2 km/h (4 Bft) 94,68 %
27.04.2016 17:40 7,7 C 8,3 C 5,6 C 89 % 1 lf 1007,3 hPa 0,0 l/m 0 min 0 min 122 W/m 16,7 km/h (3 Bft) 100,00 %
27.04.2016 17:42 7,7 C 7,8 C 5,6 C 88 % 1 lf 1007,3 hPa 0,0 l/m 0 min 0 min 162 W/m 27,2 km/h (4 Bft) 97,87 %
27.04.2016 17:44 7,7 C 7,8 C 5,6 C 87 % 0 lf 1007,3 hPa 0,0 l/m 0 min 0 min 127 W/m 14,6 km/h (3 Bft) 97,87 %
27.04.2016 17:46 7,7 C 7,8 C 5,6 C 87 % 0 lf 1007,3 hPa 0,0 l/m 0 min 0 min 125 W/m 25,1 km/h (4 Bft) 97,87 %
27.04.2016 17:48 7,7 C 7,8 C 5,6 C 87 % 2 lf 1007,3 hPa 0,0 l/m 0 min 2 min 131 W/m 25,1 km/h (4 Bft) 97,87 %
27.04.2016 17:50 7,7 C 7,8 C 5,6 C 86 % 9 lf 1007,3 hPa 0,0 l/m 0 min 2 min 136 W/m 23,0 km/h (4 Bft) 97,87 %
27.04.2016 17:52 7,7 C 7,8 C 5,6 C 86 % 10 lf 1007,5 hPa 0,0 l/m 0 min 2 min 140 W/m 39,7 km/h (6 Bft) 97,83 %
27.04.2016 17:54 7,7 C 7,8 C 5,6 C 85 % 9 lf 1007,3 hPa 0,0 l/m 0 min 0 min 160 W/m 27,2 km/h (4 Bft) 95,74 %
27.04.2016 17:56 7,7 C 7,8 C 5,6 C 85 % 6 lf 1007,4 hPa 0,0 l/m 0 min 0 min 186 W/m 33,5 km/h (5 Bft) 95,74 %
27.04.2016 17:58 7,7 C 8,3 C 5,6 C 85 % 4 lf 1007,4 hPa 0,0 l/m 2 min 0 min 228 W/m 14,6 km/h (3 Bft) 95,74 %
27.04.2016 18:00 7,8 C 8,3 C 6,1 C 85 % 3 lf 1007,5 hPa 0,0 l/m 2 min 0 min 286 W/m 18,8 km/h (3 Bft) 95,74 %
27.04.2016 18:02 7,8 C 8,9 C 6,1 C 85 % 2 lf 1007,4 hPa 0,0 l/m 2 min 0 min 279 W/m 14,6 km/h (3 Bft) 95,65 %
27.04.2016 18:04 7,9 C 8,3 C 6,1 C 85 % 1 lf 1007,6 hPa 0,0 l/m 2 min 0 min 236 W/m 33,5 km/h (5 Bft) 89,58 %
27.04.2016 18:06 7,9 C 8,3 C 5,6 C 85 % 0 lf 1007,5 hPa 0,0 l/m 2 min 0 min 215 W/m 29,3 km/h (5 Bft) 93,62 %
27.04.2016 18:08 7,9 C 8,3 C 5,6 C 84 % 0 lf 1007,5 hPa 0,0 l/m 0 min 0 min 197 W/m 20,9 km/h (4 Bft) 93,62 %
27.04.2016 18:10 7,9 C 7,8 C 5,6 C 84 % 0 lf 1007,6 hPa 0,0 l/m 0 min 0 min 180 W/m 33,5 km/h (5 Bft) 95,74 %
27.04.2016 18:12 7,9 C 7,8 C 5,6 C 84 % 0 lf 1007,6 hPa 0,0 l/m 0 min 0 min 158 W/m 33,5 km/h (5 Bft) 93,48 %
27.04.2016 18:14 7,8 C 7,8 C 5,0 C 83 % 0 lf 1007,6 hPa 0,0 l/m 0 min 0 min 145 W/m 29,3 km/h (5 Bft) 93,62 %
27.04.2016 18:16 7,8 C 7,2 C 5,0 C 82 % 0 lf 1007,7 hPa 0,0 l/m 0 min 0 min 131 W/m 33,5 km/h (5 Bft) 93,62 %
27.04.2016 18:18 7,8 C 7,2 C 5,0 C 82 % 0 lf 1007,7 hPa 0,0 l/m 0 min 0 min 110 W/m 18,8 km/h (3 Bft) 93,62 %
27.04.2016 18:20 7,8 C 7,2 C 5,0 C 82 % 0 lf 1007,7 hPa 0,0 l/m 0 min 0 min 100 W/m 25,1 km/h (4 Bft) 93,62 %
27.04.2016 18:22 7,8 C 7,2 C 5,0 C 82 % 0 lf 1007,8 hPa 0,0 l/m 0 min 0 min 97 W/m 25,1 km/h (4 Bft) 93,48 %
27.04.2016 18:24 7,7 C 6,7 C 5,0 C 82 % 0 lf 1008,0 hPa 0,0 l/m 0 min 0 min 95 W/m 37,7 km/h (5 Bft) 91,49 %
27.04.2016 18:26 7,7 C 6,7 C 5,0 C 81 % 0 lf 1008,0 hPa 0,0 l/m 0 min 0 min 90 W/m 23,0 km/h (4 Bft) 97,87 %
27.04.2016 18:28 7,6 C 6,7 C 4,4 C 81 % 0 lf 1008,1 hPa 0,0 l/m 0 min 0 min 91 W/m 29,3 km/h (5 Bft) 93,62 %
27.04.2016 18:30 7,5 C 6,7 C 4,4 C 80 % 0 lf 1008,1 hPa 0,0 l/m 0 min 0 min 94 W/m 23,0 km/h (4 Bft) 97,87 %
27.04.2016 18:32 7,4 C 6,7 C 4,4 C 80 % 0 lf 1008,2 hPa 0,0 l/m 0 min 0 min 99 W/m 20,9 km/h (4 Bft) 97,87 %
27.04.2016 18:34 7,3 C 6,7 C 4,4 C 81 % 0 lf 1008,2 hPa 0,0 l/m 0 min 0 min 102 W/m 25,1 km/h (4 Bft) 93,48 %
27.04.2016 18:36 7,3 C 6,7 C 4,4 C 81 % 0 lf 1008,2 hPa 0,0 l/m 0 min 0 min 96 W/m 31,4 km/h (5 Bft) 91,49 %
27.04.2016 18:38 7,2 C 6,7 C 4,4 C 81 % 0 lf 1008,2 hPa 0,0 l/m 0 min 0 min 74 W/m 27,2 km/h (4 Bft) 93,62 %
27.04.2016 18:40 7,2 C 6,7 C 4,4 C 81 % 0 lf 1008,2 hPa 0,0 l/m 0 min 0 min 57 W/m 23,0 km/h (4 Bft) 93,62 %
27.04.2016 18:42 7,1 C 6,7 C 4,4 C 81 % 0 lf 1008,3 hPa 0,0 l/m 0 min 0 min 63 W/m 25,1 km/h (4 Bft) 95,74 %
27.04.2016 18:44 7,1 C 6,7 C 4,4 C 81 % 0 lf 1008,2 hPa 0,0 l/m 0 min 0 min 70 W/m 14,6 km/h (3 Bft) 95,74 %
27.04.2016 18:46 7,0 C 6,7 C 4,4 C 82 % 0 lf 1008,2 hPa 0,0 l/m 0 min 0 min 76 W/m 29,3 km/h (5 Bft) 93,48 %
27.04.2016 18:48 7,0 C 6,7 C 4,4 C 82 % 0 lf 1008,3 hPa 0,0 l/m 0 min 0 min 82 W/m 18,8 km/h (3 Bft) 91,49 %
27.04.2016 18:50 6,9 C 7,2 C 4,4 C 82 % 0 lf 1008,2 hPa 0,0 l/m 0 min 0 min 94 W/m 16,7 km/h (3 Bft) 95,74 %
27.04.2016 18:52 6,9 C 7,2 C 4,4 C 82 % 0 lf 1008,2 hPa 0,0 l/m 0 min 0 min 102 W/m 12,6 km/h (3 Bft) 95,74 %
27.04.2016 18:54 6,9 C 7,2 C 4,4 C 82 % 0 lf 1008,2 hPa 0,0 l/m 0 min 0 min 113 W/m 10,5 km/h (2 Bft) 89,36 %
27.04.2016 18:56 6,9 C 7,8 C 5,0 C 83 % 0 lf 1008,2 hPa 0,0 l/m 0 min 0 min 126 W/m 18,8 km/h (3 Bft) 95,74 %
27.04.2016 18:58 6,9 C 7,8 C 5,0 C 83 % 0 lf 1008,2 hPa 0,0 l/m 0 min 0 min 130 W/m 16,7 km/h (3 Bft) 91,30 %
27.04.2016 19:00 6,9 C 7,8 C 5,0 C 83 % 0 lf 1008,3 hPa 0,0 l/m 0 min 0 min 121 W/m 16,7 km/h (3 Bft) 95,74 %
27.04.2016 19:02 6,9 C 7,8 C 5,0 C 83 % 0 lf 1008,3 hPa 0,0 l/m 0 min 0 min 121 W/m 14,6 km/h (3 Bft) 93,62 %
27.04.2016 19:04 6,9 C 7,8 C 5,0 C 83 % 0 lf 1008,3 hPa 0,0 l/m 0 min 0 min 120 W/m 18,8 km/h (3 Bft) 93,62 %
27.04.2016 19:06 6,9 C 7,8 C 5,0 C 83 % 0 lf 1008,3 hPa 0,0 l/m 0 min 0 min 116 W/m 16,7 km/h (3 Bft) 97,87 %
27.04.2016 19:08 6,9 C 7,8 C 5,0 C 84 % 0 lf 1008,4 hPa 0,0 l/m 0 min 0 min 107 W/m 18,8 km/h (3 Bft) 97,87 %
27.04.2016 19:10 6,9 C 7,8 C 5,0 C 84 % 0 lf 1008,4 hPa 0,0 l/m 0 min 0 min 95 W/m 18,8 km/h (3 Bft) 97,83 %
27.04.2016 19:12 6,9 C 7,8 C 5,0 C 84 % 0 lf 1008,4 hPa 0,0 l/m 0 min 0 min 82 W/m 20,9 km/h (4 Bft) 95,74 %
27.04.2016 19:14 6,9 C 7,2 C 5,0 C 84 % 0 lf 1008,4 hPa 0,0 l/m 0 min 0 min 73 W/m 18,8 km/h (3 Bft) 100,00 %
27.04.2016 19:16 6,9 C 7,2 C 5,0 C 84 % 0 lf 1008,4 hPa 0,0 l/m 0 min 0 min 72 W/m 27,2 km/h (4 Bft) 97,87 %
27.04.2016 19:18 6,9 C 7,2 C 5,0 C 84 % 1 lf 1008,4 hPa 0,0 l/m 0 min 0 min 85 W/m 25,1 km/h (4 Bft) 100,00 %
27.04.2016 19:20 6,9 C 7,2 C 5,0 C 84 % 15 lf 1008,5 hPa 0,0 l/m 2 min 2 min 139 W/m 37,7 km/h (5 Bft) 93,48 %
27.04.2016 19:22 6,9 C 7,2 C 5,0 C 84 % 15 lf 1008,5 hPa 0,0 l/m 2 min 2 min 181 W/m 25,1 km/h (4 Bft) 95,74 %
27.04.2016 19:24 7,0 C 7,2 C 5,0 C 85 % 15 lf 1008,5 hPa 0,0 l/m 2 min 2 min 164 W/m 18,8 km/h (3 Bft) 97,87 %
27.04.2016 19:26 7,0 C 6,7 C 5,0 C 85 % 15 lf 1008,5 hPa 0,0 l/m 2 min 2 min 139 W/m 20,9 km/h (4 Bft) 97,87 %
27.04.2016 19:28 7,0 C 6,7 C 5,0 C 85 % 15 lf 1008,5 hPa 0,0 l/m 2 min 2 min 124 W/m 16,7 km/h (3 Bft) 91,49 %
27.04.2016 19:30 7,0 C 6,7 C 5,0 C 86 % 15 lf 1008,6 hPa 0,0 l/m 2 min 0 min 106 W/m 14,6 km/h (3 Bft) 95,74 %
27.04.2016 19:32 7,0 C 6,7 C 5,0 C 86 % 15 lf 1008,5 hPa 0,0 l/m 2 min 0 min 93 W/m 20,9 km/h (4 Bft) 95,65 %
27.04.2016 19:34 6,9 C 6,7 C 4,4 C 86 % 15 lf 1008,6 hPa 0,0 l/m 0 min 0 min 83 W/m 20,9 km/h (4 Bft) 97,87 %
27.04.2016 19:36 6,9 C 6,1 C 4,4 C 86 % 15 lf 1008,6 hPa 0,0 l/m 0 min 0 min 75 W/m 23,0 km/h (4 Bft) 97,87 %
27.04.2016 19:38 6,9 C 6,1 C 4,4 C 86 % 15 lf 1008,6 hPa 0,0 l/m 0 min 0 min 68 W/m 18,8 km/h (3 Bft) 95,74 %
27.04.2016 19:40 6,8 C 6,1 C 4,4 C 86 % 15 lf 1008,6 hPa 0,0 l/m 0 min 0 min 60 W/m 14,6 km/h (3 Bft) 95,74 %
27.04.2016 19:42 6,8 C 6,1 C 4,4 C 86 % 15 lf 1008,6 hPa 0,0 l/m 0 min 0 min 52 W/m 18,8 km/h (3 Bft) 95,74 %
27.04.2016 19:44 6,7 C 6,1 C 4,4 C 86 % 15 lf 1008,6 hPa 0,0 l/m 0 min 0 min 42 W/m 14,6 km/h (3 Bft) 95,65 %
27.04.2016 19:46 6,7 C 6,1 C 4,4 C 86 % 15 lf 1008,6 hPa 0,0 l/m 0 min 0 min 35 W/m 14,6 km/h (3 Bft) 95,74 %
27.04.2016 19:48 6,7 C 6,1 C 4,4 C 86 % 15 lf 1008,7 hPa 0,0 l/m 0 min 2 min 28 W/m 16,7 km/h (3 Bft) 95,74 %
27.04.2016 19:50 6,6 C 6,1 C 4,4 C 86 % 15 lf 1008,7 hPa 0,0 l/m 0 min 2 min 22 W/m 12,6 km/h (3 Bft) 95,74 %
27.04.2016 19:52 6,6 C 6,1 C 4,4 C 86 % 15 lf 1008,8 hPa 0,0 l/m 0 min 2 min 24 W/m 16,7 km/h (3 Bft) 95,74 %
27.04.2016 19:54 6,6 C 6,1 C 4,4 C 86 % 15 lf 1008,7 hPa 0,0 l/m 0 min 2 min 36 W/m 12,6 km/h (3 Bft) 95,74 %
27.04.2016 19:56 6,6 C 6,1 C 4,4 C 87 % 15 lf 1008,7 hPa 0,0 l/m 0 min 2 min 46 W/m 18,8 km/h (3 Bft) 97,83 %
27.04.2016 19:58 6,6 C 5,6 C 4,4 C 87 % 15 lf 1008,7 hPa 0,0 l/m 0 min 2 min 51 W/m 31,4 km/h (5 Bft) 97,87 %
27.04.2016 20:00 6,5 C 5,6 C 4,4 C 87 % 15 lf 1008,8 hPa 0,2 l/m 0 min 2 min 49 W/m 23,0 km/h (4 Bft) 97,87 %
27.04.2016 20:02 6,4 C 5,6 C 4,4 C 87 % 15 lf 1008,8 hPa 0,0 l/m 0 min 2 min 46 W/m 20,9 km/h (4 Bft) 93,62 %
27.04.2016 20:04 6,4 C 5,6 C 3,9 C 87 % 15 lf 1008,8 hPa 0,0 l/m 0 min 0 min 44 W/m 18,8 km/h (3 Bft) 100,00 %
27.04.2016 20:06 6,4 C 5,6 C 3,9 C 87 % 15 lf 1008,7 hPa 0,0 l/m 0 min 0 min 41 W/m 14,6 km/h (3 Bft) 100,00 %
27.04.2016 20:08 6,4 C 5,6 C 3,9 C 87 % 15 lf 1008,8 hPa 0,0 l/m 0 min 0 min 39 W/m 12,6 km/h (3 Bft) 100,00 %
27.04.2016 20:10 6,3 C 5,6 C 3,9 C 87 % 15 lf 1008,8 hPa 0,0 l/m 0 min 0 min 38 W/m 12,6 km/h (3 Bft) 100,00 %
27.04.2016 20:12 6,3 C 5,6 C 3,9 C 87 % 15 lf 1008,8 hPa 0,0 l/m 0 min 0 min 36 W/m 14,6 km/h (3 Bft) 100,00 %
27.04.2016 20:14 6,2 C 5,6 C 3,9 C 87 % 15 lf 1008,9 hPa 0,0 l/m 0 min 0 min 34 W/m 10,5 km/h (2 Bft) 95,74 %
27.04.2016 20:16 6,2 C 5,6 C 3,9 C 87 % 15 lf 1008,9 hPa 0,0 l/m 0 min 0 min 31 W/m 14,6 km/h (3 Bft) 95,74 %
27.04.2016 20:18 6,2 C 5,6 C 3,9 C 87 % 15 lf 1008,9 hPa 0,0 l/m 0 min 0 min 30 W/m 10,5 km/h (2 Bft) 100,00 %
27.04.2016 20:20 6,2 C 5,6 C 3,9 C 88 % 15 lf 1008,9 hPa 0,0 l/m 0 min 0 min 26 W/m 10,5 km/h (2 Bft) 100,00 %
27.04.2016 20:22 6,1 C 5,6 C 3,9 C 87 % 15 lf 1008,9 hPa 0,0 l/m 0 min 0 min 21 W/m 10,5 km/h (2 Bft) 97,87 %
27.04.2016 20:24 6,1 C 5,6 C 3,9 C 88 % 15 lf 1009,0 hPa 0,0 l/m 0 min 0 min 17 W/m 20,9 km/h (4 Bft) 100,00 %
27.04.2016 20:26 6,1 C 5,6 C 3,9 C 88 % 15 lf 1009,0 hPa 0,0 l/m 0 min 0 min 13 W/m 18,8 km/h (3 Bft) 97,87 %
27.04.2016 20:28 6,0 C 5,6 C 3,9 C 88 % 14 lf 1009,0 hPa 0,0 l/m 0 min 0 min 9 W/m 14,6 km/h (3 Bft) 97,87 %
27.04.2016 20:30 5,9 C 6,1 C 3,9 C 88 % 14 lf 1009,1 hPa 0,0 l/m 0 min 0 min 6 W/m 18,8 km/h (3 Bft) 95,74 %
27.04.2016 20:32 5,9 C 6,1 C 3,9 C 88 % 14 lf 1009,1 hPa 0,0 l/m 0 min 0 min 5 W/m 16,7 km/h (3 Bft) 97,83 %
27.04.2016 20:34 5,9 C 6,1 C 3,9 C 88 % 13 lf 1009,2 hPa 0,0 l/m 0 min 0 min 1 W/m 18,8 km/h (3 Bft) 97,87 %
27.04.2016 20:36 5,9 C 6,1 C 3,9 C 88 % 13 lf 1009,2 hPa 0,0 l/m 0 min 2 min 0 W/m 20,9 km/h (4 Bft) 97,87 %
27.04.2016 20:38 5,9 C 6,1 C 3,9 C 87 % 13 lf 1009,2 hPa 0,0 l/m 0 min 2 min 3 W/m 20,9 km/h (4 Bft) 97,87 %
27.04.2016 20:40 5,9 C 6,1 C 3,9 C 87 % 13 lf 1009,3 hPa 0,0 l/m 0 min 0 min 5 W/m 23,0 km/h (4 Bft) 95,74 %
27.04.2016 20:42 5,8 C 6,1 C 3,9 C 87 % 12 lf 1009,3 hPa 0,0 l/m 0 min 0 min 5 W/m 20,9 km/h (4 Bft) 93,48 %
27.04.2016 20:44 5,8 C 6,1 C 3,9 C 87 % 11 lf 1009,3 hPa 0,0 l/m 0 min 0 min 0 W/m 18,8 km/h (3 Bft) 95,74 %
27.04.2016 20:46 5,9 C 6,1 C 3,9 C 87 % 10 lf 1009,3 hPa 0,0 l/m 0 min 0 min 0 W/m 16,7 km/h (3 Bft) 95,74 %
27.04.2016 20:48 5,9 C 6,1 C 3,9 C 87 % 9 lf 1009,4 hPa 0,0 l/m 0 min 0 min 0 W/m 16,7 km/h (3 Bft) 91,49 %
27.04.2016 20:50 5,9 C 6,1 C 3,9 C 87 % 7 lf 1009,4 hPa 0,0 l/m 0 min 0 min 0 W/m 27,2 km/h (4 Bft) 95,74 %
27.04.2016 20:52 5,9 C 6,1 C 3,9 C 87 % 12 lf 1009,4 hPa 0,0 l/m 0 min 2 min 0 W/m 23,0 km/h (4 Bft) 95,74 %
27.04.2016 20:54 5,9 C 6,1 C 3,9 C 87 % 12 lf 1009,4 hPa 0,0 l/m 0 min 2 min 0 W/m 14,6 km/h (3 Bft) 93,48 %
27.04.2016 20:56 5,9 C 5,6 C 3,9 C 87 % 11 lf 1009,5 hPa 0,0 l/m 0 min 0 min 0 W/m 18,8 km/h (3 Bft) 97,87 %
27.04.2016 20:58 5,9 C 5,6 C 3,9 C 87 % 10 lf 1009,6 hPa 0,0 l/m 0 min 0 min 0 W/m 23,0 km/h (4 Bft) 97,87 %
27.04.2016 21:00 5,9 C 5,6 C 3,9 C 87 % 9 lf 1009,5 hPa 0,0 l/m 0 min 0 min 0 W/m 12,6 km/h (3 Bft) 97,87 %
27.04.2016 21:02 5,9 C 5,6 C 3,9 C 87 % 7 lf 1009,5 hPa 0,0 l/m 0 min 0 min 0 W/m 20,9 km/h (4 Bft) 95,74 %
27.04.2016 21:04 5,8 C 5,6 C 3,9 C 87 % 6 lf 1009,6 hPa 0,0 l/m 0 min 0 min 0 W/m 18,8 km/h (3 Bft) 97,87 %
27.04.2016 21:06 5,8 C 5,6 C 3,9 C 87 % 4 lf 1009,5 hPa 0,0 l/m 0 min 0 min 0 W/m 12,6 km/h (3 Bft) 95,65 %
27.04.2016 21:08 5,8 C 5,6 C 3,9 C 87 % 4 lf 1009,6 hPa 0,0 l/m 0 min 0 min 0 W/m 16,7 km/h (3 Bft) 97,87 %
27.04.2016 21:10 5,8 C 5,6 C 3,9 C 87 % 3 lf 1009,6 hPa 0,0 l/m 0 min 0 min 0 W/m 10,5 km/h (2 Bft) 95,74 %
27.04.2016 21:12 5,8 C 5,6 C 3,9 C 87 % 3 lf 1009,7 hPa 0,0 l/m 0 min 0 min 0 W/m 18,8 km/h (3 Bft) 97,87 %
27.04.2016 21:14 5,8 C 5,6 C 3,9 C 87 % 3 lf 1009,7 hPa 0,0 l/m 0 min 0 min 0 W/m 16,7 km/h (3 Bft) 95,74 %
27.04.2016 21:16 5,8 C 5,6 C 3,9 C 87 % 2 lf 1009,7 hPa 0,0 l/m 0 min 0 min 0 W/m 14,6 km/h (3 Bft) 95,74 %
27.04.2016 21:18 5,7 C 5,6 C 3,9 C 87 % 1 lf 1009,7 hPa 0,0 l/m 0 min 0 min 0 W/m 20,9 km/h (4 Bft) 97,83 %
27.04.2016 21:20 5,7 C 5,6 C 3,9 C 87 % 1 lf 1009,7 hPa 0,0 l/m 0 min 0 min 0 W/m 18,8 km/h (3 Bft) 97,87 %
27.04.2016 21:22 5,7 C 5,6 C 3,9 C 87 % 0 lf 1009,7 hPa 0,0 l/m 0 min 0 min 0 W/m 18,8 km/h (3 Bft) 95,74 %
27.04.2016 21:24 5,7 C 5,6 C 3,9 C 87 % 0 lf 1009,8 hPa 0,0 l/m 0 min 0 min 0 W/m 18,8 km/h (3 Bft) 95,74 %
27.04.2016 21:26 5,7 C 5,6 C 3,9 C 87 % 0 lf 1009,7 hPa 0,0 l/m 0 min 0 min 0 W/m 14,6 km/h (3 Bft) 91,49 %
27.04.2016 21:28 5,7 C 5,6 C 3,9 C 87 % 0 lf 1009,8 hPa 0,0 l/m 0 min 0 min 0 W/m 16,7 km/h (3 Bft) 95,74 %
27.04.2016 21:30 5,6 C 5,6 C 3,9 C 88 % 0 lf 1009,8 hPa 0,0 l/m 0 min 0 min 0 W/m 20,9 km/h (4 Bft) 97,83 %
27.04.2016 21:32 5,6 C 5,6 C 3,9 C 88 % 0 lf 1009,9 hPa 0,0 l/m 0 min 0 min 0 W/m 23,0 km/h (4 Bft) 97,87 %
27.04.2016 21:34 5,6 C 5,6 C 3,9 C 88 % 0 lf 1009,9 hPa 0,0 l/m 0 min 0 min 0 W/m 12,6 km/h (3 Bft) 97,87 %
27.04.2016 21:36 5,6 C 5,6 C 3,9 C 88 % 1 lf 1010,0 hPa 0,0 l/m 0 min 2 min 0 W/m 20,9 km/h (4 Bft) 97,87 %
27.04.2016 21:38 5,6 C 5,6 C 3,9 C 88 % 3 lf 1010,0 hPa 0,0 l/m 0 min 2 min 0 W/m 23,0 km/h (4 Bft) 97,87 %
27.04.2016 21:40 5,6 C 5,6 C 3,9 C 88 % 10 lf 1010,1 hPa 0,0 l/m 0 min 2 min 0 W/m 16,7 km/h (3 Bft) 95,65 %
27.04.2016 21:42 5,6 C 5,0 C 3,3 C 88 % 15 lf 1010,1 hPa 0,0 l/m 0 min 2 min 0 W/m 20,9 km/h (4 Bft) 97,87 %
27.04.2016 21:44 5,5 C 4,4 C 3,3 C 88 % 15 lf 1010,0 hPa 0,0 l/m 0 min 2 min 0 W/m 18,8 km/h (3 Bft) 100,00 %
27.04.2016 21:46 5,5 C 4,4 C 3,3 C 88 % 15 lf 1010,1 hPa 0,2 l/m 0 min 2 min 0 W/m 18,8 km/h (3 Bft) 100,00 %
27.04.2016 21:48 5,4 C 4,4 C 3,3 C 88 % 15 lf 1010,0 hPa 0,0 l/m 0 min 2 min 0 W/m 18,8 km/h (3 Bft) 97,87 %
27.04.2016 21:50 5,4 C 4,4 C 3,3 C 88 % 15 lf 1010,0 hPa 0,0 l/m 0 min 2 min 0 W/m 18,8 km/h (3 Bft) 100,00 %
27.04.2016 21:52 5,3 C 3,9 C 3,3 C 89 % 15 lf 1010,1 hPa 0,2 l/m 0 min 2 min 0 W/m 16,7 km/h (3 Bft) 97,83 %
27.04.2016 21:54 5,3 C 3,9 C 2,8 C 89 % 15 lf 1010,2 hPa 0,0 l/m 0 min 2 min 0 W/m 14,6 km/h (3 Bft) 97,87 %
27.04.2016 21:56 5,2 C 3,9 C 2,8 C 89 % 15 lf 1010,2 hPa 0,0 l/m 0 min 0 min 0 W/m 16,7 km/h (3 Bft) 95,74 %
27.04.2016 21:58 5,2 C 3,9 C 2,8 C 89 % 15 lf 1010,2 hPa 0,0 l/m 0 min 0 min 0 W/m 12,6 km/h (3 Bft) 95,74 %
27.04.2016 22:00 5,1 C 3,9 C 2,8 C 89 % 15 lf 1010,2 hPa 0,0 l/m 0 min 0 min 0 W/m 10,5 km/h (2 Bft) 97,87 %
27.04.2016 22:02 5,1 C 3,9 C 2,8 C 89 % 15 lf 1010,2 hPa 0,2 l/m 0 min 0 min 0 W/m 10,5 km/h (2 Bft) 91,49 %
27.04.2016 22:04 5,0 C 3,9 C 2,8 C 89 % 15 lf 1010,2 hPa 0,0 l/m 0 min 0 min 0 W/m 18,8 km/h (3 Bft) 97,83 %
27.04.2016 22:06 4,9 C 3,9 C 2,8 C 89 % 15 lf 1010,3 hPa 0,0 l/m 0 min 0 min 0 W/m 14,6 km/h (3 Bft) 95,74 %
27.04.2016 22:08 4,9 C 3,9 C 2,8 C 89 % 15 lf 1010,3 hPa 0,0 l/m 0 min 0 min 0 W/m 12,6 km/h (3 Bft) 91,49 %
27.04.2016 22:10 4,8 C 3,9 C 2,8 C 89 % 15 lf 1010,3 hPa 0,0 l/m 0 min 0 min 0 W/m 16,7 km/h (3 Bft) 97,87 %
27.04.2016 22:12 4,8 C 3,9 C 2,8 C 89 % 15 lf 1010,4 hPa 0,0 l/m 0 min 0 min 0 W/m 20,9 km/h (4 Bft) 95,74 %
27.04.2016 22:14 4,8 C 3,9 C 2,8 C 90 % 15 lf 1010,4 hPa 0,0 l/m 0 min 0 min 0 W/m 20,9 km/h (4 Bft) 95,74 %
27.04.2016 22:16 4,7 C 3,9 C 2,8 C 89 % 15 lf 1010,4 hPa 0,0 l/m 0 min 0 min 0 W/m 18,8 km/h (3 Bft) 95,65 %
27.04.2016 22:18 4,7 C 3,9 C 2,8 C 90 % 15 lf 1010,5 hPa 0,0 l/m 0 min 0 min 0 W/m 18,8 km/h (3 Bft) 95,74 %
27.04.2016 22:20 4,6 C 3,9 C 2,8 C 90 % 15 lf 1010,5 hPa 0,0 l/m 0 min 2 min 0 W/m 14,6 km/h (3 Bft) 89,36 %
27.04.2016 22:22 4,6 C 3,9 C 2,8 C 90 % 15 lf 1010,5 hPa 0,0 l/m 0 min 2 min 0 W/m 23,0 km/h (4 Bft) 91,49 %
27.04.2016 22:24 4,6 C 3,9 C 2,8 C 90 % 15 lf 1010,6 hPa 0,0 l/m 0 min 2 min 0 W/m 14,6 km/h (3 Bft) 93,62 %
27.04.2016 22:26 4,5 C 3,9 C 2,8 C 90 % 15 lf 1010,6 hPa 0,0 l/m 0 min 2 min 0 W/m 20,9 km/h (4 Bft) 93,62 %
27.04.2016 22:28 4,5 C 3,9 C 2,8 C 91 % 15 lf 1010,5 hPa 0,0 l/m 0 min 2 min 0 W/m 20,9 km/h (4 Bft) 93,48 %
27.04.2016 22:30 4,5 C 3,9 C 2,8 C 91 % 15 lf 1010,5 hPa 0,0 l/m 0 min 2 min 0 W/m 12,6 km/h (3 Bft) 95,74 %
27.04.2016 22:32 4,4 C 3,9 C 2,8 C 91 % 15 lf 1010,4 hPa 0,0 l/m 0 min 2 min 0 W/m 16,7 km/h (3 Bft) 93,62 %
27.04.2016 22:34 4,4 C 3,9 C 2,8 C 91 % 15 lf 1010,5 hPa 0,0 l/m 0 min 0 min 0 W/m 14,6 km/h (3 Bft) 93,62 %
27.04.2016 22:36 4,4 C 3,9 C 2,8 C 91 % 15 lf 1010,5 hPa 0,0 l/m 0 min 0 min 0 W/m 14,6 km/h (3 Bft) 91,49 %
27.04.2016 22:38 4,4 C 3,9 C 2,8 C 91 % 15 lf 1010,5 hPa 0,0 l/m 0 min 0 min 0 W/m 14,6 km/h (3 Bft) 95,74 %
27.04.2016 22:40 4,3 C 3,9 C 2,8 C 91 % 15 lf 1010,6 hPa 0,0 l/m 0 min 0 min 0 W/m 10,5 km/h (2 Bft) 95,65 %
27.04.2016 22:42 4,3 C 3,3 C 2,8 C 91 % 15 lf 1010,7 hPa 0,0 l/m 0 min 0 min 0 W/m 14,6 km/h (3 Bft) 93,62 %
27.04.2016 22:44 4,3 C 3,3 C 2,8 C 91 % 15 lf 1010,6 hPa 0,0 l/m 0 min 0 min 0 W/m 8,4 km/h (2 Bft) 95,74 %
27.04.2016 22:46 4,3 C 3,3 C 2,8 C 92 % 15 lf 1010,6 hPa 0,0 l/m 0 min 0 min 0 W/m 12,6 km/h (3 Bft) 93,62 %
27.04.2016 22:48 4,2 C 3,3 C 2,8 C 92 % 15 lf 1010,7 hPa 0,0 l/m 0 min 0 min 0 W/m 14,6 km/h (3 Bft) 95,74 %
27.04.2016 22:50 4,2 C 3,3 C 2,2 C 92 % 15 lf 1010,7 hPa 0,0 l/m 0 min 0 min 0 W/m 10,5 km/h (2 Bft) 95,65 %
27.04.2016 22:52 4,2 C 3,3 C 2,2 C 92 % 15 lf 1010,7 hPa 0,0 l/m 0 min 0 min 0 W/m 12,6 km/h (3 Bft) 95,74 %
27.04.2016 22:54 4,1 C 3,3 C 2,2 C 92 % 15 lf 1010,7 hPa 0,0 l/m 0 min 0 min 0 W/m 10,5 km/h (2 Bft) 95,74 %
27.04.2016 22:56 4,1 C 3,3 C 2,2 C 92 % 15 lf 1010,8 hPa 0,0 l/m 0 min 0 min 0 W/m 10,5 km/h (2 Bft) 97,87 %
27.04.2016 22:58 4,1 C 3,3 C 2,2 C 92 % 15 lf 1010,7 hPa 0,0 l/m 0 min 0 min 0 W/m 10,5 km/h (2 Bft) 97,87 %
27.04.2016 23:00 4,1 C 3,3 C 2,8 C 92 % 15 lf 1010,7 hPa 0,0 l/m 0 min 0 min 0 W/m 16,7 km/h (3 Bft) 93,62 %
27.04.2016 23:02 4,0 C 3,3 C 2,8 C 92 % 15 lf 1010,8 hPa 0,0 l/m 0 min 0 min 0 W/m 16,7 km/h (3 Bft) 95,65 %
27.04.2016 23:04 4,0 C 3,3 C 2,8 C 92 % 15 lf 1010,8 hPa 0,0 l/m 0 min 0 min 0 W/m 10,5 km/h (2 Bft) 97,87 %
27.04.2016 23:06 4,0 C 3,3 C 2,8 C 92 % 15 lf 1010,8 hPa 0,0 l/m 0 min 0 min 0 W/m 12,6 km/h (3 Bft) 95,74 %
27.04.2016 23:08 3,9 C 3,3 C 2,8 C 92 % 15 lf 1010,8 hPa 0,0 l/m 0 min 0 min 0 W/m 14,6 km/h (3 Bft) 97,87 %
27.04.2016 23:10 3,9 C 3,3 C 2,8 C 92 % 15 lf 1010,9 hPa 0,0 l/m 0 min 0 min 0 W/m 8,4 km/h (2 Bft) 93,62 %
27.04.2016 23:12 3,9 C 3,3 C 2,8 C 92 % 15 lf 1010,9 hPa 0,0 l/m 0 min 0 min 0 W/m 10,5 km/h (2 Bft) 97,87 %
27.04.2016 23:14 3,9 C 3,3 C 2,8 C 92 % 15 lf 1010,8 hPa 0,0 l/m 0 min 0 min 0 W/m 12,6 km/h (3 Bft) 97,83 %
27.04.2016 23:16 3,9 C 3,3 C 2,8 C 92 % 15 lf 1010,8 hPa 0,0 l/m 0 min 0 min 0 W/m 16,7 km/h (3 Bft) 91,49 %
27.04.2016 23:18 3,9 C 3,3 C 2,8 C 92 % 15 lf 1010,8 hPa 0,0 l/m 0 min 0 min 0 W/m 12,6 km/h (3 Bft) 95,74 %
27.04.2016 23:20 3,9 C 3,3 C 2,8 C 93 % 15 lf 1010,8 hPa 0,0 l/m 0 min 0 min 0 W/m 16,7 km/h (3 Bft) 97,87 %
27.04.2016 23:22 3,9 C 3,3 C 2,8 C 93 % 15 lf 1010,8 hPa 0,0 l/m 0 min 0 min 0 W/m 12,6 km/h (3 Bft) 97,87 %
27.04.2016 23:24 3,9 C 3,9 C 2,8 C 93 % 15 lf 1010,8 hPa 0,0 l/m 0 min 2 min 0 W/m 6,3 km/h (2 Bft) 95,74 %
27.04.2016 23:26 3,9 C 3,9 C 2,8 C 93 % 15 lf 1010,8 hPa 0,0 l/m 0 min 2 min 0 W/m 8,4 km/h (2 Bft) 93,48 %
27.04.2016 23:28 3,9 C 3,9 C 2,8 C 93 % 15 lf 1010,8 hPa 0,0 l/m 0 min 2 min 0 W/m 12,6 km/h (3 Bft) 97,87 %
27.04.2016 23:30 3,9 C 3,3 C 2,8 C 93 % 15 lf 1010,9 hPa 0,0 l/m 0 min 2 min 0 W/m 12,6 km/h (3 Bft) 93,62 %
27.04.2016 23:32 3,9 C 3,9 C 2,8 C 93 % 15 lf 1010,9 hPa 0,0 l/m 0 min 2 min 0 W/m 12,6 km/h (3 Bft) 97,87 %
27.04.2016 23:34 3,9 C 3,3 C 2,8 C 93 % 15 lf 1010,9 hPa 0,0 l/m 0 min 2 min 0 W/m 20,9 km/h (4 Bft) 97,87 %
27.04.2016 23:36 3,9 C 3,3 C 2,8 C 93 % 15 lf 1011,0 hPa 0,2 l/m 0 min 2 min 0 W/m 23,0 km/h (4 Bft) 95,74 %
27.04.2016 23:38 3,8 C 3,3 C 2,2 C 93 % 15 lf 1011,1 hPa 0,0 l/m 0 min 2 min 0 W/m 31,4 km/h (5 Bft) 97,83 %
27.04.2016 23:40 3,8 C 3,3 C 2,2 C 93 % 15 lf 1011,2 hPa 0,0 l/m 0 min 2 min 0 W/m 27,2 km/h (4 Bft) 97,87 %
27.04.2016 23:42 3,7 C 2,8 C 1,7 C 93 % 15 lf 1011,2 hPa 0,2 l/m 0 min 2 min 0 W/m 23,0 km/h (4 Bft) 97,87 %
27.04.2016 23:44 3,7 C 2,8 C 1,7 C 93 % 15 lf 1011,3 hPa 0,0 l/m 0 min 2 min 0 W/m 16,7 km/h (3 Bft) 100,00 %
27.04.2016 23:46 3,6 C 2,8 C 1,7 C 93 % 15 lf 1011,2 hPa 0,2 l/m 0 min 2 min 0 W/m 16,7 km/h (3 Bft) 97,87 %
27.04.2016 23:48 3,5 C 2,8 C 1,7 C 93 % 15 lf 1011,2 hPa 0,0 l/m 0 min 2 min 0 W/m 18,8 km/h (3 Bft) 97,87 %
27.04.2016 23:50 3,4 C 2,8 C 1,7 C 93 % 15 lf 1011,2 hPa 0,2 l/m 0 min 2 min 0 W/m 14,6 km/h (3 Bft) 95,65 %
27.04.2016 23:52 3,4 C 2,8 C 1,7 C 93 % 15 lf 1011,3 hPa 0,0 l/m 0 min 2 min 0 W/m 14,6 km/h (3 Bft) 93,62 %
27.04.2016 23:54 3,3 C 2,8 C 1,7 C 93 % 15 lf 1011,2 hPa 0,0 l/m 0 min 2 min 0 W/m 10,5 km/h (2 Bft) 93,62 %
27.04.2016 23:56 3,3 C 2,8 C 1,7 C 93 % 15 lf 1011,2 hPa 0,2 l/m 0 min 2 min 0 W/m 10,5 km/h (2 Bft) 97,87 %
27.04.2016 23:58 3,2 C 2,8 C 1,7 C 93 % 15 lf 1011,2 hPa 0,0 l/m 0 min 2 min 0 W/m 12,6 km/h (3 Bft) 95,74 %
_ Min-Zeit 03:28 03:18 03:18 14:00 00:00 02:38 - - - - 23:24 08:58
Minimum _ 2,7 C 2,2 C 1,1 C 74 % 0 lf 1000,9 hPa - - - - 6,3 km/h (2 Bft) 85,11 %
_ Max-Zeit 13:52 11:06 12:50 06:48 01:56 23:44 03:16 09:14 00:22 12:50 05:04 00:26
Maximum _ 10,0 C 17,8 C 11,7 C 96 % 15 lf 1011,3 hPa 0,2 l/m 2 min 2 min 1067 W/m 54,4 km/h
W-NW (7 Bft)
100,00 %
Durchschnitt _ 5,2 C 6,1 C 4,1 C 90 % 9 lf 1004,8 hPa #5,8 l/m #3:24 h #8:50 h 233 W/m 26,9 km/h (4 Bft) 95,96 %
© 2016 W. Hausmann